Time,TemperatureF,DewpointF,PressureIn,WindDirection,WindDirectionDegrees,WindSpeedMPH,WindSpeedGustMPH,Humidity,HourlyPrecipIn,Conditions,Clouds,dailyrainin,SoftwareType,DateUTC
2013-05-02 00:01:00,62.6,16.4,30.05,West,270,4.7,5.6,17,0.00,,,0.00,WUHU216HW,2013-05-02 07:01:00,
2013-05-02 00:02:00,62.5,16.2,30.05,WSW,248,4.9,5.6,17,0.00,,,0.00,WUHU216HW,2013-05-02 07:02:00,
2013-05-02 00:03:00,62.5,16.2,30.05,WSW,248,5.1,5.6,17,0.00,,,0.00,WUHU216HW,2013-05-02 07:03:00,
2013-05-02 00:06:00,62.3,16.1,30.05,West,270,4.7,5.6,17,0.00,,,0.00,WUHU216HW,2013-05-02 07:06:00,
2013-05-02 00:07:00,62.3,16.1,30.05,West,270,5.4,5.6,17,0.00,,,0.00,WUHU216HW,2013-05-02 07:07:00,
2013-05-02 00:09:00,62.3,16.1,30.05,West,270,4.7,5.6,17,0.00,,,0.00,WUHU216HW,2013-05-02 07:09:00,
2013-05-02 00:12:00,62.3,16.1,30.05,WSW,248,6.3,6.9,17,0.00,,,0.00,WUHU216HW,2013-05-02 07:12:00,
2013-05-02 00:14:00,62.3,16.1,30.05,West,270,6.3,6.9,17,0.00,,,0.00,WUHU216HW,2013-05-02 07:14:00,
2013-05-02 00:17:00,62.3,16.1,30.04,WSW,248,6.3,6.9,17,0.00,,,0.00,WUHU216HW,2013-05-02 07:17:00,
2013-05-02 00:18:00,62.3,16.1,30.04,West,270,6.3,6.9,17,0.00,,,0.00,WUHU216HW,2013-05-02 07:18:00,
2013-05-02 00:19:00,62.5,16.2,30.05,WSW,248,6.3,6.9,17,0.00,,,0.00,WUHU216HW,2013-05-02 07:19:00,
2013-05-02 00:22:00,62.6,16.4,30.04,WSW,248,7.6,7.6,17,0.00,,,0.00,WUHU216HW,2013-05-02 07:22:00,
2013-05-02 00:23:00,62.6,16.4,30.04,WSW,248,6.5,7.6,17,0.00,,,0.00,WUHU216HW,2013-05-02 07:23:00,
2013-05-02 00:24:00,62.6,16.4,30.04,WSW,248,6.9,7.6,17,0.00,,,0.00,WUHU216HW,2013-05-02 07:24:00,
2013-05-02 00:27:00,62.8,16.5,30.04,WSW,248,6.3,8.1,17,0.00,,,0.00,WUHU216HW,2013-05-02 07:27:00,
2013-05-02 00:28:00,62.8,16.5,30.04,SW,225,6.9,8.1,17,0.00,,,0.00,WUHU216HW,2013-05-02 07:28:00,
2013-05-02 00:29:00,63.0,16.7,30.04,WSW,248,5.4,8.1,17,0.00,,,0.00,WUHU216HW,2013-05-02 07:29:00,
2013-05-02 00:32:00,63.0,16.7,30.04,West,270,5.4,8.1,17,0.00,,,0.00,WUHU216HW,2013-05-02 07:32:00,
2013-05-02 00:33:00,63.0,16.7,30.04,WSW,248,6.5,8.1,17,0.00,,,0.00,WUHU216HW,2013-05-02 07:33:00,
2013-05-02 00:34:00,63.0,16.7,30.04,West,270,6.3,8.1,17,0.00,,,0.00,WUHU216HW,2013-05-02 07:34:00,
2013-05-02 00:37:00,63.0,16.7,30.04,West,270,6.5,6.9,17,0.00,,,0.00,WUHU216HW,2013-05-02 07:37:00,
2013-05-02 00:38:00,63.0,16.7,30.04,WSW,248,7.2,7.2,17,0.00,,,0.00,WUHU216HW,2013-05-02 07:38:00,
2013-05-02 00:39:00,63.0,16.7,30.04,WSW,248,6.3,8.1,17,0.00,,,0.00,WUHU216HW,2013-05-02 07:39:00,
2013-05-02 00:42:00,63.0,16.7,30.04,WSW,248,7.2,8.1,17,0.00,,,0.00,WUHU216HW,2013-05-02 07:42:00,
2013-05-02 00:43:00,63.0,18.2,30.04,WSW,248,8.1,8.1,18,0.00,,,0.00,WUHU216HW,2013-05-02 07:43:00,
2013-05-02 00:44:00,63.0,18.2,30.04,West,270,6.3,8.1,18,0.00,,,0.00,WUHU216HW,2013-05-02 07:44:00,
2013-05-02 00:48:00,63.0,18.2,30.03,WSW,248,7.4,8.1,18,0.00,,,0.00,WUHU216HW,2013-05-02 07:48:00,
2013-05-02 00:49:00,63.0,16.7,30.03,West,270,6.5,8.1,17,0.00,,,0.00,WUHU216HW,2013-05-02 07:49:00,
2013-05-02 00:50:00,63.0,18.2,30.03,WSW,248,8.1,8.1,18,0.00,,,0.00,WUHU216HW,2013-05-02 07:50:00,
2013-05-02 00:53:00,63.0,18.2,30.03,WSW,248,5.8,8.5,18,0.00,,,0.00,WUHU216HW,2013-05-02 07:53:00,
2013-05-02 00:54:00,63.0,18.2,30.03,WSW,248,5.4,8.5,18,0.00,,,0.00,WUHU216HW,2013-05-02 07:54:00,
2013-05-02 00:55:00,63.0,18.2,30.03,West,270,5.6,8.5,18,0.00,,,0.00,WUHU216HW,2013-05-02 07:55:00,
2013-05-02 00:58:00,63.0,18.2,30.03,WSW,248,7.6,8.5,18,0.00,,,0.00,WUHU216HW,2013-05-02 07:58:00,
2013-05-02 00:59:00,63.0,18.2,30.03,WSW,248,7.2,8.5,18,0.00,,,0.00,WUHU216HW,2013-05-02 07:59:00,
2013-05-02 01:00:00,63.0,18.2,30.03,WSW,248,6.7,8.5,18,0.00,,,0.00,WUHU216HW,2013-05-02 08:00:00,
2013-05-02 01:03:00,63.0,18.2,30.03,WSW,248,6.7,7.6,18,0.00,,,0.00,WUHU216HW,2013-05-02 08:03:00,
2013-05-02 01:04:00,63.0,18.2,30.03,WSW,248,6.7,7.6,18,0.00,,,0.00,WUHU216HW,2013-05-02 08:04:00,
2013-05-02 01:05:00,63.0,18.2,30.03,WSW,248,6.3,8.5,18,0.00,,,0.00,WUHU216HW,2013-05-02 08:05:00,
2013-05-02 01:08:00,63.0,18.2,30.03,West,270,7.6,8.5,18,0.00,,,0.00,WUHU216HW,2013-05-02 08:08:00,
2013-05-02 01:09:00,63.0,18.2,30.03,West,270,6.3,8.5,18,0.00,,,0.00,WUHU216HW,2013-05-02 08:09:00,
2013-05-02 01:10:00,63.0,18.2,30.03,WSW,248,7.8,8.5,18,0.00,,,0.00,WUHU216HW,2013-05-02 08:10:00,
2013-05-02 01:14:00,63.0,18.2,30.03,WSW,248,7.6,8.5,18,0.00,,,0.00,WUHU216HW,2013-05-02 08:14:00,
2013-05-02 01:15:00,63.0,18.2,30.02,West,270,6.3,8.5,18,0.00,,,0.00,WUHU216HW,2013-05-02 08:15:00,
2013-05-02 01:16:00,63.0,18.2,30.02,WSW,248,9.6,9.6,18,0.00,,,0.00,WUHU216HW,2013-05-02 08:16:00,
2013-05-02 01:19:00,63.0,18.2,30.03,West,270,8.3,9.6,18,0.00,,,0.00,WUHU216HW,2013-05-02 08:19:00,
2013-05-02 01:20:00,63.0,18.2,30.02,WSW,248,7.4,9.6,18,0.00,,,0.00,WUHU216HW,2013-05-02 08:20:00,
2013-05-02 01:21:00,62.8,18.1,30.03,West,270,6.5,9.6,18,0.00,,,0.00,WUHU216HW,2013-05-02 08:21:00,
2013-05-02 01:24:00,63.0,18.2,30.02,West,270,7.4,9.6,18,0.00,,,0.00,WUHU216HW,2013-05-02 08:24:00,
2013-05-02 01:25:00,63.0,18.2,30.02,West,270,5.6,9.6,18,0.00,,,0.00,WUHU216HW,2013-05-02 08:25:00,
2013-05-02 01:26:00,63.0,18.2,30.02,West,270,7.4,9.2,18,0.00,,,0.00,WUHU216HW,2013-05-02 08:26:00,
2013-05-02 01:29:00,63.0,18.2,30.02,West,270,5.1,9.2,18,0.00,,,0.00,WUHU216HW,2013-05-02 08:29:00,
2013-05-02 01:31:00,63.0,18.2,30.02,WSW,248,6.5,9.2,18,0.00,,,0.00,WUHU216HW,2013-05-02 08:31:00,
2013-05-02 01:34:00,63.0,18.2,30.02,WSW,248,5.4,7.4,18,0.00,,,0.00,WUHU216HW,2013-05-02 08:34:00,
2013-05-02 01:36:00,62.8,18.1,30.02,WSW,248,7.4,7.6,18,0.00,,,0.00,WUHU216HW,2013-05-02 08:36:00,
2013-05-02 01:39:00,63.0,18.2,30.02,WNW,293,6.5,8.5,18,0.00,,,0.00,WUHU216HW,2013-05-02 08:39:00,
2013-05-02 01:40:00,62.8,18.1,30.02,West,270,6.3,8.5,18,0.00,,,0.00,WUHU216HW,2013-05-02 08:40:00,
2013-05-02 01:41:00,63.0,18.2,30.02,WSW,248,5.4,8.5,18,0.00,,,0.00,WUHU216HW,2013-05-02 08:41:00,
2013-05-02 01:42:00,62.8,18.1,30.02,West,270,6.7,8.5,18,0.00,,,0.00,WUHU216HW,2013-05-02 08:42:00,
2013-05-02 01:44:00,63.0,18.2,30.02,WSW,248,6.9,8.5,18,0.00,,,0.00,WUHU216HW,2013-05-02 08:44:00,
2013-05-02 01:45:00,63.0,18.2,30.02,West,270,6.5,8.5,18,0.00,,,0.00,WUHU216HW,2013-05-02 08:45:00,
2013-05-02 01:46:00,63.0,18.2,30.02,West,270,6.3,8.5,18,0.00,,,0.00,WUHU216HW,2013-05-02 08:46:00,
2013-05-02 01:47:00,63.0,18.2,30.02,West,270,6.5,8.5,18,0.00,,,0.00,WUHU216HW,2013-05-02 08:47:00,
2013-05-02 01:49:00,63.0,18.2,30.02,West,270,5.4,8.3,18,0.00,,,0.00,WUHU216HW,2013-05-02 08:49:00,
2013-05-02 01:50:00,63.0,18.2,30.02,West,270,5.4,8.3,18,0.00,,,0.00,WUHU216HW,2013-05-02 08:50:00,
2013-05-02 01:51:00,63.0,18.2,30.02,West,270,5.6,8.3,18,0.00,,,0.00,WUHU216HW,2013-05-02 08:51:00,
2013-05-02 01:52:00,63.0,18.2,30.02,West,270,5.6,8.3,18,0.00,,,0.00,WUHU216HW,2013-05-02 08:52:00,
2013-05-02 01:55:00,62.8,18.1,30.02,West,270,4.7,6.9,18,0.00,,,0.00,WUHU216HW,2013-05-02 08:55:00,
2013-05-02 01:56:00,62.8,18.1,30.02,WNW,293,5.1,6.7,18,0.00,,,0.00,WUHU216HW,2013-05-02 08:56:00,
2013-05-02 01:57:00,62.8,18.1,30.02,WNW,293,5.1,6.7,18,0.00,,,0.00,WUHU216HW,2013-05-02 08:57:00,
2013-05-02 02:00:00,62.6,17.9,30.02,West,270,5.4,6.3,18,0.00,,,0.00,WUHU216HW,2013-05-02 09:00:00,
2013-05-02 02:01:00,62.5,17.8,30.02,WNW,293,6.0,6.9,18,0.00,,,0.00,WUHU216HW,2013-05-02 09:01:00,
2013-05-02 02:02:00,62.5,17.8,30.02,West,270,5.4,6.9,18,0.00,,,0.00,WUHU216HW,2013-05-02 09:02:00,
2013-05-02 02:05:00,62.3,19.2,30.02,West,270,6.3,7.6,19,0.00,,,0.00,WUHU216HW,2013-05-02 09:05:00,
2013-05-02 02:06:00,62.3,19.2,30.02,West,270,4.7,7.6,19,0.00,,,0.00,WUHU216HW,2013-05-02 09:06:00,
2013-05-02 02:07:00,62.3,19.2,30.02,West,270,4.7,7.6,19,0.00,,,0.00,WUHU216HW,2013-05-02 09:07:00,
2013-05-02 02:10:00,62.1,19.1,30.02,WSW,248,5.8,7.6,19,0.00,,,0.00,WUHU216HW,2013-05-02 09:10:00,
2013-05-02 02:11:00,62.1,19.1,30.02,WSW,248,5.4,7.6,19,0.00,,,0.00,WUHU216HW,2013-05-02 09:11:00,
2013-05-02 02:12:00,61.9,18.9,30.02,West,270,5.4,7.6,19,0.00,,,0.00,WUHU216HW,2013-05-02 09:12:00,
2013-05-02 02:15:00,61.7,18.8,30.02,West,270,4.9,6.3,19,0.00,,,0.00,WUHU216HW,2013-05-02 09:15:00,
2013-05-02 02:16:00,61.7,18.8,30.02,WSW,248,5.1,6.3,19,0.00,,,0.00,WUHU216HW,2013-05-02 09:16:00,
2013-05-02 02:17:00,61.6,18.6,30.02,West,270,5.1,6.3,19,0.00,,,0.00,WUHU216HW,2013-05-02 09:17:00,
2013-05-02 02:18:00,61.6,18.6,30.02,WSW,248,6.3,6.3,19,0.00,,,0.00,WUHU216HW,2013-05-02 09:18:00,
2013-05-02 02:20:00,61.6,18.6,30.02,West,270,6.7,6.7,19,0.00,,,0.00,WUHU216HW,2013-05-02 09:20:00,
2013-05-02 02:21:00,61.6,18.6,30.02,WSW,248,6.3,6.7,19,0.00,,,0.00,WUHU216HW,2013-05-02 09:21:00,
2013-05-02 02:23:00,61.6,18.6,30.02,WSW,248,6.3,6.9,19,0.00,,,0.00,WUHU216HW,2013-05-02 09:23:00,
2013-05-02 02:26:00,61.4,18.5,30.01,WSW,248,6.5,6.9,19,0.00,,,0.00,WUHU216HW,2013-05-02 09:26:00,
2013-05-02 02:28:00,61.4,18.5,30.01,West,270,5.4,6.9,19,0.00,,,0.00,WUHU216HW,2013-05-02 09:28:00,
2013-05-02 02:31:00,61.2,18.4,30.01,West,270,8.1,8.1,19,0.00,,,0.00,WUHU216HW,2013-05-02 09:31:00,
2013-05-02 02:32:00,61.2,18.4,30.01,WSW,248,6.3,8.1,19,0.00,,,0.00,WUHU216HW,2013-05-02 09:32:00,
2013-05-02 02:33:00,61.2,18.4,30.01,West,270,5.6,8.1,19,0.00,,,0.00,WUHU216HW,2013-05-02 09:33:00,
2013-05-02 02:36:00,61.0,19.8,30.01,West,270,7.4,8.1,20,0.00,,,0.00,WUHU216HW,2013-05-02 09:36:00,
2013-05-02 02:37:00,61.0,19.8,30.01,West,270,7.6,8.1,20,0.00,,,0.00,WUHU216HW,2013-05-02 09:37:00,
2013-05-02 02:38:00,61.0,19.8,30.01,West,270,7.8,8.7,20,0.00,,,0.00,WUHU216HW,2013-05-02 09:38:00,
2013-05-02 02:39:00,61.0,19.8,30.01,West,270,7.8,8.7,20,0.00,,,0.00,WUHU216HW,2013-05-02 09:39:00,
2013-05-02 02:41:00,61.0,20.7,30.01,West,270,7.2,8.7,21,0.00,,,0.00,WUHU216HW,2013-05-02 09:41:00,
2013-05-02 02:42:00,61.0,19.8,30.01,WSW,248,6.0,8.7,20,0.00,,,0.00,WUHU216HW,2013-05-02 09:42:00,
2013-05-02 02:44:00,61.2,20.9,30.01,West,270,7.4,8.7,21,0.00,,,0.00,WUHU216HW,2013-05-02 09:44:00,
2013-05-02 02:46:00,61.4,20.1,30.01,WSW,248,6.9,8.7,20,0.00,,,0.00,WUHU216HW,2013-05-02 09:46:00,
2013-05-02 02:47:00,61.4,20.1,30.01,West,270,4.9,8.7,20,0.00,,,0.00,WUHU216HW,2013-05-02 09:47:00,
2013-05-02 02:49:00,61.4,20.1,30.02,WSW,248,5.4,8.7,20,0.00,,,0.00,WUHU216HW,2013-05-02 09:49:00,
2013-05-02 02:52:00,61.4,18.5,30.02,West,270,6.0,8.3,19,0.00,,,0.00,WUHU216HW,2013-05-02 09:52:00,
2013-05-02 02:54:00,61.2,18.4,30.02,West,270,4.0,8.3,19,0.00,,,0.00,WUHU216HW,2013-05-02 09:54:00,
2013-05-02 02:55:00,61.2,18.4,30.02,West,270,3.6,8.3,19,0.00,,,0.00,WUHU216HW,2013-05-02 09:55:00,
2013-05-02 02:57:00,61.2,18.4,30.02,West,270,4.0,6.7,19,0.00,,,0.00,WUHU216HW,2013-05-02 09:57:00,
2013-05-02 02:59:00,61.0,18.2,30.02,West,270,6.3,6.3,19,0.00,,,0.00,WUHU216HW,2013-05-02 09:59:00,
2013-05-02 03:00:00,61.0,19.8,30.02,SW,225,4.7,6.3,20,0.00,,,0.00,WUHU216HW,2013-05-02 10:00:00,
2013-05-02 03:02:00,60.8,20.6,30.03,West,270,4.9,6.3,21,0.00,,,0.00,WUHU216HW,2013-05-02 10:02:00,
2013-05-02 03:03:00,60.8,19.6,30.03,WSW,248,5.1,6.3,20,0.00,,,0.00,WUHU216HW,2013-05-02 10:03:00,
2013-05-02 03:04:00,60.7,20.4,30.03,West,270,4.7,6.3,21,0.00,,,0.00,WUHU216HW,2013-05-02 10:04:00,
2013-05-02 03:05:00,60.7,20.4,30.03,West,270,4.9,6.3,21,0.00,,,0.00,WUHU216HW,2013-05-02 10:05:00,
2013-05-02 03:07:00,60.5,20.3,30.03,West,270,4.7,6.3,21,0.00,,,0.00,WUHU216HW,2013-05-02 10:07:00,
2013-05-02 03:08:00,60.5,20.3,30.03,West,270,4.5,6.3,21,0.00,,,0.00,WUHU216HW,2013-05-02 10:08:00,
2013-05-02 03:09:00,60.3,20.1,30.03,West,270,4.5,6.3,21,0.00,,,0.00,WUHU216HW,2013-05-02 10:09:00,
2013-05-02 03:10:00,60.3,20.1,30.03,West,270,4.3,5.6,21,0.00,,,0.00,WUHU216HW,2013-05-02 10:10:00,
2013-05-02 03:12:00,60.1,19.9,30.03,West,270,4.7,5.4,21,0.00,,,0.00,WUHU216HW,2013-05-02 10:12:00,
2013-05-02 03:13:00,60.1,19.9,30.03,West,270,5.4,5.4,21,0.00,,,0.00,WUHU216HW,2013-05-02 10:13:00,
2013-05-02 03:15:00,59.9,19.8,30.03,West,270,5.6,5.6,21,0.00,,,0.00,WUHU216HW,2013-05-02 10:15:00,
2013-05-02 03:16:00,59.9,19.8,30.03,West,270,6.3,6.3,21,0.00,,,0.00,WUHU216HW,2013-05-02 10:16:00,
2013-05-02 03:17:00,59.9,19.8,30.03,West,270,6.3,6.3,21,0.00,,,0.00,WUHU216HW,2013-05-02 10:17:00,
2013-05-02 03:18:00,59.9,19.8,30.03,West,270,6.3,6.3,21,0.00,,,0.00,WUHU216HW,2013-05-02 10:18:00,
2013-05-02 03:20:00,60.1,19.9,30.03,West,270,5.4,6.9,21,0.00,,,0.00,WUHU216HW,2013-05-02 10:20:00,
2013-05-02 03:21:00,60.1,19.9,30.03,West,270,6.0,6.9,21,0.00,,,0.00,WUHU216HW,2013-05-02 10:21:00,
2013-05-02 03:23:00,60.1,19.9,30.03,West,270,4.5,6.9,21,0.00,,,0.00,WUHU216HW,2013-05-02 10:23:00,
2013-05-02 03:25:00,60.1,19.9,30.03,West,270,4.7,6.9,21,0.00,,,0.00,WUHU216HW,2013-05-02 10:25:00,
2013-05-02 03:26:00,60.1,19.9,30.03,West,270,4.0,6.9,21,0.00,,,0.00,WUHU216HW,2013-05-02 10:26:00,
2013-05-02 03:28:00,60.1,19.9,30.03,West,270,3.6,6.9,21,0.00,,,0.00,WUHU216HW,2013-05-02 10:28:00,
2013-05-02 03:29:00,60.1,19.9,30.04,WSW,248,4.5,6.5,21,0.00,,,0.00,WUHU216HW,2013-05-02 10:29:00,
2013-05-02 03:30:00,60.1,19.9,30.03,WSW,248,4.0,6.5,21,0.00,,,0.00,WUHU216HW,2013-05-02 10:30:00,
2013-05-02 03:31:00,60.1,19.9,30.03,WSW,248,4.9,5.4,21,0.00,,,0.00,WUHU216HW,2013-05-02 10:31:00,
2013-05-02 03:33:00,60.1,19.9,30.03,WSW,248,5.6,5.6,21,0.00,,,0.00,WUHU216HW,2013-05-02 10:33:00,
2013-05-02 03:34:00,60.1,19.9,30.03,West,270,5.4,5.6,21,0.00,,,0.00,WUHU216HW,2013-05-02 10:34:00,
2013-05-02 03:35:00,60.1,19.9,30.03,West,270,5.4,5.6,21,0.00,,,0.00,WUHU216HW,2013-05-02 10:35:00,
2013-05-02 03:37:00,60.1,19.9,30.03,West,270,7.6,7.6,21,0.00,,,0.00,WUHU216HW,2013-05-02 10:37:00,
2013-05-02 03:38:00,60.1,19.9,30.03,West,270,5.8,7.6,21,0.00,,,0.00,WUHU216HW,2013-05-02 10:38:00,
2013-05-02 03:39:00,60.1,19.9,30.04,West,270,6.0,7.6,21,0.00,,,0.00,WUHU216HW,2013-05-02 10:39:00,
2013-05-02 03:40:00,60.1,19.9,30.03,West,270,5.4,7.6,21,0.00,,,0.00,WUHU216HW,2013-05-02 10:40:00,
2013-05-02 03:42:00,60.1,19.9,30.03,West,270,5.4,7.6,21,0.00,,,0.00,WUHU216HW,2013-05-02 10:42:00,
2013-05-02 03:43:00,60.1,19.9,30.03,West,270,4.5,7.6,21,0.00,,,0.00,WUHU216HW,2013-05-02 10:43:00,
2013-05-02 03:44:00,60.1,19.9,30.03,WSW,248,6.9,7.6,21,0.00,,,0.00,WUHU216HW,2013-05-02 10:44:00,
2013-05-02 03:46:00,60.1,19.9,30.03,West,270,6.3,7.6,21,0.00,,,0.00,WUHU216HW,2013-05-02 10:46:00,
2013-05-02 03:48:00,60.1,19.9,30.03,West,270,5.4,6.9,21,0.00,,,0.00,WUHU216HW,2013-05-02 10:48:00,
2013-05-02 03:49:00,60.1,19.9,30.03,West,270,5.4,6.9,21,0.00,,,0.00,WUHU216HW,2013-05-02 10:49:00,
2013-05-02 03:51:00,60.1,19.9,30.03,West,270,4.5,6.9,21,0.00,,,0.00,WUHU216HW,2013-05-02 10:51:00,
2013-05-02 03:53:00,60.1,19.9,30.03,West,270,7.2,7.2,21,0.00,,,0.00,WUHU216HW,2013-05-02 10:53:00,
2013-05-02 03:54:00,60.1,19.9,30.03,West,270,6.3,7.2,21,0.00,,,0.00,WUHU216HW,2013-05-02 10:54:00,
2013-05-02 03:55:00,60.1,19.9,30.03,WSW,248,5.6,7.2,21,0.00,,,0.00,WUHU216HW,2013-05-02 10:55:00,
2013-05-02 03:56:00,60.1,19.9,30.03,West,270,5.1,7.2,21,0.00,,,0.00,WUHU216HW,2013-05-02 10:56:00,
2013-05-02 03:58:00,60.1,19.9,30.03,West,270,4.5,7.2,21,0.00,,,0.00,WUHU216HW,2013-05-02 10:58:00,
2013-05-02 03:59:00,60.1,19.9,30.04,West,270,4.0,7.2,21,0.00,,,0.00,WUHU216HW,2013-05-02 10:59:00,
2013-05-02 04:00:00,60.1,19.9,30.04,WNW,293,4.3,7.2,21,0.00,,,0.00,WUHU216HW,2013-05-02 11:00:00,
2013-05-02 04:01:00,60.1,19.9,30.03,West,270,4.5,7.2,21,0.00,,,0.00,WUHU216HW,2013-05-02 11:01:00,
2013-05-02 04:03:00,59.9,19.8,30.03,WSW,248,4.9,6.3,21,0.00,,,0.00,WUHU216HW,2013-05-02 11:03:00,
2013-05-02 04:04:00,59.9,19.8,30.03,WSW,248,3.8,6.3,21,0.00,,,0.00,WUHU216HW,2013-05-02 11:04:00,
2013-05-02 04:05:00,59.8,19.6,30.03,West,270,4.5,5.6,21,0.00,,,0.00,WUHU216HW,2013-05-02 11:05:00,
2013-05-02 04:07:00,59.8,19.6,30.03,West,270,4.9,4.9,21,0.00,,,0.00,WUHU216HW,2013-05-02 11:07:00,
2013-05-02 04:08:00,59.6,19.4,30.03,West,270,4.7,5.1,21,0.00,,,0.00,WUHU216HW,2013-05-02 11:08:00,
2013-05-02 04:09:00,59.4,19.3,30.03,West,270,5.4,5.4,21,0.00,,,0.00,WUHU216HW,2013-05-02 11:09:00,
2013-05-02 04:10:00,59.4,19.3,30.03,West,270,5.4,5.4,21,0.00,,,0.00,WUHU216HW,2013-05-02 11:10:00,
2013-05-02 04:12:00,59.4,19.3,30.03,West,270,7.6,8.1,21,0.00,,,0.00,WUHU216HW,2013-05-02 11:12:00,
2013-05-02 04:13:00,59.4,19.3,30.03,West,270,4.9,8.1,21,0.00,,,0.00,WUHU216HW,2013-05-02 11:13:00,
2013-05-02 04:14:00,59.4,19.3,30.03,WSW,248,6.5,8.1,21,0.00,,,0.00,WUHU216HW,2013-05-02 11:14:00,
2013-05-02 04:15:00,59.4,19.3,30.03,West,270,4.5,8.1,21,0.00,,,0.00,WUHU216HW,2013-05-02 11:15:00,
2013-05-02 04:17:00,59.4,19.3,30.04,WNW,293,3.6,8.1,21,0.00,,,0.00,WUHU216HW,2013-05-02 11:17:00,
2013-05-02 04:18:00,59.4,20.3,30.04,West,270,4.5,8.1,22,0.00,,,0.00,WUHU216HW,2013-05-02 11:18:00,
2013-05-02 04:19:00,59.4,19.3,30.04,West,270,3.6,8.1,21,0.00,,,0.00,WUHU216HW,2013-05-02 11:19:00,
2013-05-02 04:20:00,59.4,20.3,30.04,West,270,4.0,8.1,22,0.00,,,0.00,WUHU216HW,2013-05-02 11:20:00,
2013-05-02 04:23:00,59.2,20.1,30.04,West,270,4.7,6.5,22,0.00,,,0.00,WUHU216HW,2013-05-02 11:23:00,
2013-05-02 04:24:00,59.2,20.1,30.04,West,270,4.5,5.6,22,0.00,,,0.00,WUHU216HW,2013-05-02 11:24:00,
2013-05-02 04:25:00,59.0,20.0,30.04,West,270,4.9,5.6,22,0.00,,,0.00,WUHU216HW,2013-05-02 11:25:00,
2013-05-02 04:28:00,59.0,20.0,30.04,West,270,4.0,5.6,22,0.00,,,0.00,WUHU216HW,2013-05-02 11:28:00,
2013-05-02 04:29:00,59.0,20.0,30.04,West,270,4.0,5.6,22,0.00,,,0.00,WUHU216HW,2013-05-02 11:29:00,
2013-05-02 04:30:00,58.9,19.8,30.04,West,270,3.8,5.6,22,0.00,,,0.00,WUHU216HW,2013-05-02 11:30:00,
2013-05-02 04:31:00,58.9,19.8,30.04,West,270,3.4,5.4,22,0.00,,,0.00,WUHU216HW,2013-05-02 11:31:00,
2013-05-02 04:33:00,58.7,19.6,30.04,West,270,4.0,5.1,22,0.00,,,0.00,WUHU216HW,2013-05-02 11:33:00,
2013-05-02 04:35:00,58.7,19.6,30.04,West,270,4.7,5.1,22,0.00,,,0.00,WUHU216HW,2013-05-02 11:35:00,
2013-05-02 04:36:00,58.7,19.6,30.04,West,270,4.5,5.1,22,0.00,,,0.00,WUHU216HW,2013-05-02 11:36:00,
2013-05-02 04:38:00,58.5,20.4,30.04,West,270,3.4,4.7,23,0.00,,,0.00,WUHU216HW,2013-05-02 11:38:00,
2013-05-02 04:39:00,58.5,20.4,30.04,WNW,293,4.0,4.7,23,0.00,,,0.00,WUHU216HW,2013-05-02 11:39:00,
2013-05-02 04:40:00,58.5,20.4,30.05,West,270,2.9,4.7,23,0.00,,,0.00,WUHU216HW,2013-05-02 11:40:00,
2013-05-02 04:44:00,58.5,20.4,30.05,WNW,293,3.4,4.7,23,0.00,,,0.00,WUHU216HW,2013-05-02 11:44:00,
2013-05-02 04:45:00,58.7,20.6,30.05,WSW,248,2.5,4.7,23,0.00,,,0.00,WUHU216HW,2013-05-02 11:45:00,
2013-05-02 04:46:00,58.7,20.6,30.05,West,270,2.9,4.7,23,0.00,,,0.00,WUHU216HW,2013-05-02 11:46:00,
2013-05-02 04:49:00,58.5,20.4,30.05,WSW,248,3.8,4.0,23,0.00,,,0.00,WUHU216HW,2013-05-02 11:49:00,
2013-05-02 04:51:00,58.5,20.4,30.05,West,270,4.7,4.7,23,0.00,,,0.00,WUHU216HW,2013-05-02 11:51:00,
2013-05-02 04:54:00,58.3,20.4,30.05,West,270,4.0,4.9,23,0.00,,,0.00,WUHU216HW,2013-05-02 11:54:00,
2013-05-02 04:56:00,58.1,20.2,30.05,WNW,293,3.4,4.9,23,0.00,,,0.00,WUHU216HW,2013-05-02 11:56:00,
2013-05-02 04:59:00,58.0,20.0,30.05,West,270,4.7,4.9,23,0.00,,,0.00,WUHU216HW,2013-05-02 11:59:00,
2013-05-02 05:01:00,57.8,19.9,30.05,West,270,3.6,4.9,23,0.00,,,0.00,WUHU216HW,2013-05-02 12:01:00,
2013-05-02 05:02:00,57.8,20.8,30.06,West,270,3.4,4.9,24,0.00,,,0.00,WUHU216HW,2013-05-02 12:02:00,
2013-05-02 05:04:00,57.6,20.7,30.05,West,270,3.8,4.7,24,0.00,,,0.00,WUHU216HW,2013-05-02 12:04:00,
2013-05-02 05:06:00,57.4,20.5,30.05,West,270,4.3,4.7,24,0.00,,,0.00,WUHU216HW,2013-05-02 12:06:00,
2013-05-02 05:07:00,57.4,20.5,30.05,West,270,4.9,4.9,24,0.00,,,0.00,WUHU216HW,2013-05-02 12:07:00,
2013-05-02 05:09:00,57.2,20.3,30.06,West,270,4.9,4.9,24,0.00,,,0.00,WUHU216HW,2013-05-02 12:09:00,
2013-05-02 05:11:00,57.2,20.3,30.06,WSW,248,5.1,5.6,24,0.00,,,0.00,WUHU216HW,2013-05-02 12:11:00,
2013-05-02 05:13:00,57.2,20.3,30.06,West,270,4.7,5.6,24,0.00,,,0.00,WUHU216HW,2013-05-02 12:13:00,
2013-05-02 05:15:00,57.2,20.3,30.06,WSW,248,4.0,5.6,24,0.00,,,0.00,WUHU216HW,2013-05-02 12:15:00,
2013-05-02 05:16:00,57.2,20.3,30.06,West,270,4.0,5.6,24,0.00,,,0.00,WUHU216HW,2013-05-02 12:16:00,
2013-05-02 05:18:00,57.2,20.3,30.06,WSW,248,5.6,5.8,24,0.00,,,0.00,WUHU216HW,2013-05-02 12:18:00,
2013-05-02 05:20:00,57.4,20.5,30.06,West,270,5.4,6.3,24,0.00,,,0.00,WUHU216HW,2013-05-02 12:20:00,
2013-05-02 05:21:00,57.4,20.5,30.06,WSW,248,5.4,6.3,24,0.00,,,0.00,WUHU216HW,2013-05-02 12:21:00,
2013-05-02 05:22:00,57.4,20.5,30.06,WSW,248,5.8,6.3,24,0.00,,,0.00,WUHU216HW,2013-05-02 12:22:00,
2013-05-02 05:23:00,57.6,20.7,30.06,West,270,5.4,6.3,24,0.00,,,0.00,WUHU216HW,2013-05-02 12:23:00,
2013-05-02 05:25:00,57.6,20.7,30.06,West,270,5.1,6.3,24,0.00,,,0.00,WUHU216HW,2013-05-02 12:25:00,
2013-05-02 05:26:00,57.6,20.7,30.07,West,270,4.0,6.3,24,0.00,,,0.00,WUHU216HW,2013-05-02 12:26:00,
2013-05-02 05:27:00,57.8,20.8,30.07,West,270,5.4,6.3,24,0.00,,,0.00,WUHU216HW,2013-05-02 12:27:00,
2013-05-02 05:28:00,57.8,20.8,30.07,WSW,248,4.7,6.3,24,0.00,,,0.00,WUHU216HW,2013-05-02 12:28:00,
2013-05-02 05:30:00,57.8,20.8,30.07,West,270,3.4,5.8,24,0.00,,,0.00,WUHU216HW,2013-05-02 12:30:00,
2013-05-02 05:31:00,57.8,20.8,30.07,West,270,3.6,5.8,24,0.00,,,0.00,WUHU216HW,2013-05-02 12:31:00,
2013-05-02 05:32:00,57.8,21.8,30.07,West,270,5.4,5.4,25,0.00,,,0.00,WUHU216HW,2013-05-02 12:32:00,
2013-05-02 05:33:00,57.8,21.8,30.07,West,270,4.3,5.4,25,0.00,,,0.00,WUHU216HW,2013-05-02 12:33:00,
2013-05-02 05:35:00,57.6,21.6,30.07,West,270,3.6,5.4,25,0.00,,,0.00,WUHU216HW,2013-05-02 12:35:00,
2013-05-02 05:36:00,57.6,21.6,30.07,West,270,4.7,5.4,25,0.00,,,0.00,WUHU216HW,2013-05-02 12:36:00,
2013-05-02 05:38:00,57.6,21.6,30.08,West,270,3.4,5.4,25,0.00,,,0.00,WUHU216HW,2013-05-02 12:38:00,
2013-05-02 05:40:00,57.4,21.5,30.08,WNW,293,2.5,5.4,25,0.00,,,0.00,WUHU216HW,2013-05-02 12:40:00,
2013-05-02 05:41:00,57.2,21.3,30.08,SW,225,1.8,5.4,25,0.00,,,0.00,WUHU216HW,2013-05-02 12:41:00,
2013-05-02 05:43:00,57.2,21.3,30.08,NW,315,2.7,4.7,25,0.00,,,0.00,WUHU216HW,2013-05-02 12:43:00,
2013-05-02 05:45:00,57.2,21.3,30.08,WNW,293,1.8,4.7,25,0.00,,,0.00,WUHU216HW,2013-05-02 12:45:00,
2013-05-02 05:46:00,57.2,21.3,30.08,WNW,293,2.2,4.7,25,0.00,,,0.00,WUHU216HW,2013-05-02 12:46:00,
2013-05-02 05:48:00,57.2,21.3,30.09,NW,315,3.1,4.0,25,0.00,,,0.00,WUHU216HW,2013-05-02 12:48:00,
2013-05-02 05:49:00,57.2,22.3,30.09,NNW,338,3.1,4.0,26,0.00,,,0.00,WUHU216HW,2013-05-02 12:49:00,
2013-05-02 05:50:00,57.2,23.2,30.09,WNW,293,2.9,3.8,27,0.00,,,0.00,WUHU216HW,2013-05-02 12:50:00,
2013-05-02 05:51:00,57.2,23.2,30.09,WNW,293,3.1,4.3,27,0.00,,,0.00,WUHU216HW,2013-05-02 12:51:00,
2013-05-02 05:52:00,57.2,23.2,30.09,NW,315,3.4,4.3,27,0.00,,,0.00,WUHU216HW,2013-05-02 12:52:00,
2013-05-02 05:53:00,57.2,23.2,30.09,NW,315,2.0,4.3,27,0.00,,,0.00,WUHU216HW,2013-05-02 12:53:00,
2013-05-02 05:54:00,57.2,23.2,30.09,WNW,293,2.7,4.3,27,0.00,,,0.00,WUHU216HW,2013-05-02 12:54:00,
2013-05-02 05:55:00,57.4,23.4,30.09,NNW,338,4.0,4.3,27,0.00,,,0.00,WUHU216HW,2013-05-02 12:55:00,
2013-05-02 05:56:00,57.6,22.6,30.09,NW,315,2.5,4.5,26,0.00,,,0.00,WUHU216HW,2013-05-02 12:56:00,
2013-05-02 05:57:00,57.6,22.6,30.09,NW,315,2.2,4.5,26,0.00,,,0.00,WUHU216HW,2013-05-02 12:57:00,
2013-05-02 05:58:00,57.8,23.7,30.09,WNW,293,3.4,4.5,27,0.00,,,0.00,WUHU216HW,2013-05-02 12:58:00,
2013-05-02 05:59:00,58.0,22.9,30.09,NW,315,2.9,4.5,26,0.00,,,0.00,WUHU216HW,2013-05-02 12:59:00,
2013-05-02 06:00:00,58.0,22.9,30.10,NW,315,3.4,4.5,26,0.00,,,0.00,WUHU216HW,2013-05-02 13:00:00,
2013-05-02 06:01:00,58.1,22.1,30.09,WSW,248,2.5,4.5,25,0.00,,,0.00,WUHU216HW,2013-05-02 13:01:00,
2013-05-02 06:02:00,58.1,22.1,30.09,WNW,293,2.9,4.5,25,0.00,,,0.00,WUHU216HW,2013-05-02 13:02:00,
2013-05-02 06:04:00,58.3,22.2,30.09,WNW,293,3.1,4.5,25,0.00,,,0.00,WUHU216HW,2013-05-02 13:04:00,
2013-05-02 06:05:00,58.5,22.4,30.09,West,270,3.4,4.5,25,0.00,,,0.00,WUHU216HW,2013-05-02 13:05:00,
2013-05-02 06:06:00,58.5,22.4,30.09,West,270,2.5,4.3,25,0.00,,,0.00,WUHU216HW,2013-05-02 13:06:00,
2013-05-02 06:08:00,58.5,22.4,30.10,WNW,293,3.4,4.3,25,0.00,,,0.00,WUHU216HW,2013-05-02 13:08:00,
2013-05-02 06:09:00,58.5,22.4,30.10,WNW,293,4.0,4.3,25,0.00,,,0.00,WUHU216HW,2013-05-02 13:09:00,
2013-05-02 06:10:00,58.7,22.6,30.10,West,270,2.9,4.5,25,0.00,,,0.00,WUHU216HW,2013-05-02 13:10:00,
2013-05-02 06:11:00,58.7,22.6,30.10,NW,315,4.0,4.5,25,0.00,,,0.00,WUHU216HW,2013-05-02 13:11:00,
2013-05-02 06:14:00,58.7,22.6,30.10,NW,315,2.5,4.5,25,0.00,,,0.00,WUHU216HW,2013-05-02 13:14:00,
2013-05-02 06:15:00,58.9,22.7,30.10,NW,315,2.7,4.5,25,0.00,,,0.00,WUHU216HW,2013-05-02 13:15:00,
2013-05-02 06:16:00,59.0,22.9,30.10,WNW,293,3.8,4.5,25,0.00,,,0.00,WUHU216HW,2013-05-02 13:16:00,
2013-05-02 06:17:00,59.0,22.9,30.10,WNW,293,3.6,4.5,25,0.00,,,0.00,WUHU216HW,2013-05-02 13:17:00,
2013-05-02 06:19:00,59.2,23.1,30.10,WNW,293,2.5,4.5,25,0.00,,,0.00,WUHU216HW,2013-05-02 13:19:00,
2013-05-02 06:21:00,59.4,23.1,30.10,NW,315,2.7,4.0,25,0.00,,,0.00,WUHU216HW,2013-05-02 13:21:00,
2013-05-02 06:22:00,59.4,23.1,30.10,NW,315,2.5,4.7,25,0.00,,,0.00,WUHU216HW,2013-05-02 13:22:00,
2013-05-02 06:24:00,59.8,23.5,30.10,NNW,338,4.5,4.7,25,0.00,,,0.00,WUHU216HW,2013-05-02 13:24:00,
2013-05-02 06:26:00,59.9,22.7,30.10,North,0,3.6,4.7,24,0.00,,,0.00,WUHU216HW,2013-05-02 13:26:00,
2013-05-02 06:27:00,59.9,22.7,30.10,NW,315,2.5,5.4,24,0.00,,,0.00,WUHU216HW,2013-05-02 13:27:00,
2013-05-02 06:29:00,60.1,22.9,30.10,NW,315,2.5,5.4,24,0.00,,,0.00,WUHU216HW,2013-05-02 13:29:00,
2013-05-02 06:31:00,60.3,23.0,30.10,NW,315,4.5,5.8,24,0.00,,,0.00,WUHU216HW,2013-05-02 13:31:00,
2013-05-02 06:32:00,60.3,23.0,30.10,NW,315,5.1,5.8,24,0.00,,,0.00,WUHU216HW,2013-05-02 13:32:00,
2013-05-02 06:34:00,60.5,22.1,30.10,North,0,6.3,6.3,23,0.00,,,0.00,WUHU216HW,2013-05-02 13:34:00,
2013-05-02 06:35:00,60.7,21.3,30.10,NW,315,7.6,7.6,22,0.00,,,0.00,WUHU216HW,2013-05-02 13:35:00,
2013-05-02 06:37:00,60.8,20.6,30.10,NW,315,4.0,7.6,21,0.00,,,0.00,WUHU216HW,2013-05-02 13:37:00,
2013-05-02 06:38:00,60.8,20.6,30.10,North,0,5.4,7.6,21,0.00,,,0.00,WUHU216HW,2013-05-02 13:38:00,
2013-05-02 06:39:00,61.0,20.7,30.10,WNW,293,4.0,7.6,21,0.00,,,0.00,WUHU216HW,2013-05-02 13:39:00,
2013-05-02 06:40:00,61.0,20.7,30.10,NW,315,4.3,7.6,21,0.00,,,0.00,WUHU216HW,2013-05-02 13:40:00,
2013-05-02 06:42:00,61.2,20.9,30.10,NW,315,3.4,7.6,21,0.00,,,0.00,WUHU216HW,2013-05-02 13:42:00,
2013-05-02 06:43:00,61.2,20.9,30.10,North,0,2.7,7.6,21,0.00,,,0.00,WUHU216HW,2013-05-02 13:43:00,
2013-05-02 06:44:00,61.4,21.0,30.10,NW,315,4.7,7.6,21,0.00,,,0.00,WUHU216HW,2013-05-02 13:44:00,
2013-05-02 06:45:00,61.6,21.2,30.10,West,270,5.4,6.9,21,0.00,,,0.00,WUHU216HW,2013-05-02 13:45:00,
2013-05-02 06:47:00,61.6,21.2,30.10,West,270,3.6,6.9,21,0.00,,,0.00,WUHU216HW,2013-05-02 13:47:00,
2013-05-02 06:48:00,61.7,22.2,30.10,NW,315,4.0,6.9,22,0.00,,,0.00,WUHU216HW,2013-05-02 13:48:00,
2013-05-02 06:50:00,61.6,21.2,30.10,WNW,293,6.5,6.9,21,0.00,,,0.00,WUHU216HW,2013-05-02 13:50:00,
2013-05-02 06:51:00,61.7,21.3,30.10,NW,315,5.4,6.9,21,0.00,,,0.00,WUHU216HW,2013-05-02 13:51:00,
2013-05-02 06:52:00,61.9,21.4,30.10,NW,315,5.1,6.9,21,0.00,,,0.00,WUHU216HW,2013-05-02 13:52:00,
2013-05-02 06:53:00,61.9,21.4,30.10,West,270,5.1,6.9,21,0.00,,,0.00,WUHU216HW,2013-05-02 13:53:00,
2013-05-02 06:55:00,61.9,22.4,30.10,NW,315,5.4,7.6,22,0.00,,,0.00,WUHU216HW,2013-05-02 13:55:00,
2013-05-02 06:56:00,62.1,22.6,30.10,NW,315,6.9,7.6,22,0.00,,,0.00,WUHU216HW,2013-05-02 13:56:00,
2013-05-02 06:57:00,62.3,21.8,30.10,NW,315,7.2,7.6,21,0.00,,,0.00,WUHU216HW,2013-05-02 13:57:00,
2013-05-02 06:58:00,62.3,21.8,30.10,West,270,4.9,7.6,21,0.00,,,0.00,WUHU216HW,2013-05-02 13:58:00,
2013-05-02 07:00:00,62.5,21.9,30.10,NW,315,4.9,7.6,21,0.00,,,0.00,WUHU216HW,2013-05-02 14:00:00,
2013-05-02 07:01:00,62.5,19.4,30.10,NW,315,4.5,7.6,19,0.00,,,0.00,WUHU216HW,2013-05-02 14:01:00,
2013-05-02 07:03:00,62.6,19.5,30.10,NW,315,6.3,7.6,19,0.00,,,0.00,WUHU216HW,2013-05-02 14:03:00,
2013-05-02 07:06:00,63.0,18.2,30.10,NW,315,7.2,9.2,18,0.00,,,0.00,WUHU216HW,2013-05-02 14:06:00,
2013-05-02 07:08:00,63.2,18.4,30.11,NNW,338,4.9,9.2,18,0.00,,,0.00,WUHU216HW,2013-05-02 14:08:00,
2013-05-02 07:11:00,63.4,16.9,30.11,NW,315,6.5,9.8,17,0.00,,,0.00,WUHU216HW,2013-05-02 14:11:00,
2013-05-02 07:13:00,63.5,15.5,30.11,NW,315,8.3,9.8,16,0.00,,,0.00,WUHU216HW,2013-05-02 14:13:00,
2013-05-02 07:14:00,63.5,13.9,30.11,NW,315,8.9,9.8,15,0.00,,,0.00,WUHU216HW,2013-05-02 14:14:00,
2013-05-02 07:16:00,63.5,13.9,30.11,NNW,338,6.5,9.8,15,0.00,,,0.00,WUHU216HW,2013-05-02 14:16:00,
2013-05-02 07:17:00,63.7,14.0,30.11,NNW,338,7.8,9.8,15,0.00,,,0.00,WUHU216HW,2013-05-02 14:17:00,
2013-05-02 07:18:00,63.7,14.0,30.11,North,0,5.4,9.8,15,0.00,,,0.00,WUHU216HW,2013-05-02 14:18:00,
2013-05-02 07:19:00,63.7,14.0,30.11,NW,315,4.9,9.8,15,0.00,,,0.00,WUHU216HW,2013-05-02 14:19:00,
2013-05-02 07:21:00,63.9,12.6,30.11,North,0,6.3,9.2,14,0.00,,,0.00,WUHU216HW,2013-05-02 14:21:00,
2013-05-02 07:22:00,63.9,11.0,30.11,North,0,6.3,9.2,13,0.00,,,0.00,WUHU216HW,2013-05-02 14:22:00,
2013-05-02 07:23:00,64.1,12.7,30.11,NNW,338,6.3,9.2,14,0.00,,,0.00,WUHU216HW,2013-05-02 14:23:00,
2013-05-02 07:24:00,64.1,11.2,30.11,NNW,338,8.3,9.2,13,0.00,,,0.00,WUHU216HW,2013-05-02 14:24:00,
2013-05-02 07:27:00,64.3,11.3,30.11,NW,315,7.4,9.8,13,0.00,,,0.00,WUHU216HW,2013-05-02 14:27:00,
2013-05-02 07:28:00,64.4,11.4,30.11,NW,315,6.3,9.8,13,0.00,,,0.00,WUHU216HW,2013-05-02 14:28:00,
2013-05-02 07:29:00,64.4,11.4,30.11,NNW,338,8.5,9.8,13,0.00,,,0.00,WUHU216HW,2013-05-02 14:29:00,
2013-05-02 07:32:00,64.6,10.0,30.12,NW,315,8.7,9.8,12,0.00,,,0.00,WUHU216HW,2013-05-02 14:32:00,
2013-05-02 07:34:00,64.8,10.1,30.12,NNW,338,9.8,9.8,12,0.00,,,0.00,WUHU216HW,2013-05-02 14:34:00,
2013-05-02 07:37:00,65.0,8.6,30.12,NW,315,7.8,9.8,11,0.00,,,0.00,WUHU216HW,2013-05-02 14:37:00,
2013-05-02 07:39:00,65.2,10.5,30.12,NW,315,5.8,9.8,12,0.00,,,0.00,WUHU216HW,2013-05-02 14:39:00,
2013-05-02 07:40:00,65.2,8.8,30.12,WNW,293,6.9,9.8,11,0.00,,,0.00,WUHU216HW,2013-05-02 14:40:00,
2013-05-02 07:42:00,65.2,8.8,30.12,West,270,5.4,9.8,11,0.00,,,0.00,WUHU216HW,2013-05-02 14:42:00,
2013-05-02 07:43:00,65.2,8.8,30.12,West,270,6.5,9.8,11,0.00,,,0.00,WUHU216HW,2013-05-02 14:43:00,
2013-05-02 07:44:00,65.2,8.8,30.11,NNW,338,6.9,9.8,11,0.00,,,0.00,WUHU216HW,2013-05-02 14:44:00,
2013-05-02 07:45:00,65.3,9.0,30.11,NW,315,4.9,9.8,11,0.00,,,0.00,WUHU216HW,2013-05-02 14:45:00,
2013-05-02 07:47:00,65.5,10.7,30.11,NW,315,5.1,8.7,12,0.00,,,0.00,WUHU216HW,2013-05-02 14:47:00,
2013-05-02 07:48:00,65.5,10.7,30.11,WNW,293,9.4,9.4,12,0.00,,,0.00,WUHU216HW,2013-05-02 14:48:00,
2013-05-02 07:49:00,65.5,9.1,30.11,West,270,7.8,9.4,11,0.00,,,0.00,WUHU216HW,2013-05-02 14:49:00,
2013-05-02 07:50:00,65.7,9.3,30.11,WNW,293,6.0,9.4,11,0.00,,,0.00,WUHU216HW,2013-05-02 14:50:00,
2013-05-02 07:52:00,66.1,9.5,30.11,West,270,7.6,9.4,11,0.00,,,0.00,WUHU216HW,2013-05-02 14:52:00,
2013-05-02 07:53:00,66.1,9.5,30.11,West,270,6.0,9.4,11,0.00,,,0.00,WUHU216HW,2013-05-02 14:53:00,
2013-05-02 07:54:00,66.2,9.7,30.11,West,270,7.4,9.4,11,0.00,,,0.00,WUHU216HW,2013-05-02 14:54:00,
2013-05-02 07:55:00,66.2,9.7,30.11,WNW,293,6.5,9.4,11,0.00,,,0.00,WUHU216HW,2013-05-02 14:55:00,
2013-05-02 07:57:00,66.6,10.0,30.11,NNW,338,6.0,9.4,11,0.00,,,0.00,WUHU216HW,2013-05-02 14:57:00,
2013-05-02 07:58:00,66.6,10.0,30.11,NNW,338,4.9,9.2,11,0.00,,,0.00,WUHU216HW,2013-05-02 14:58:00,
2013-05-02 08:00:00,66.8,10.1,30.11,NNW,338,4.7,9.2,11,0.00,,,0.00,WUHU216HW,2013-05-02 15:00:00,
2013-05-02 08:01:00,67.0,10.3,30.12,NNW,338,6.0,9.2,11,0.00,,,0.00,WUHU216HW,2013-05-02 15:01:00,
2013-05-02 08:03:00,67.1,10.5,30.12,NW,315,3.6,8.5,11,0.00,,,0.00,WUHU216HW,2013-05-02 15:03:00,
2013-05-02 08:05:00,67.3,10.5,30.12,NNW,338,6.0,8.1,11,0.00,,,0.00,WUHU216HW,2013-05-02 15:05:00,
2013-05-02 08:06:00,67.3,10.5,30.12,NW,315,4.0,8.1,11,0.00,,,0.00,WUHU216HW,2013-05-02 15:06:00,
2013-05-02 08:08:00,67.5,9.1,30.12,NNW,338,6.9,8.3,10,0.00,,,0.00,WUHU216HW,2013-05-02 15:08:00,
2013-05-02 08:10:00,67.7,10.9,30.12,NE,45,4.9,8.3,11,0.00,,,0.00,WUHU216HW,2013-05-02 15:10:00,
2013-05-02 08:11:00,67.7,10.9,30.12,NNW,338,5.8,8.3,11,0.00,,,0.00,WUHU216HW,2013-05-02 15:11:00,
2013-05-02 08:13:00,67.7,10.9,30.12,NW,315,4.9,8.3,11,0.00,,,0.00,WUHU216HW,2013-05-02 15:13:00,
2013-05-02 08:15:00,67.9,9.4,30.12,NNW,338,2.7,13.0,10,0.00,,,0.00,WUHU216HW,2013-05-02 15:15:00,
2013-05-02 08:16:00,67.9,11.0,30.12,NNW,338,3.4,13.0,11,0.00,,,0.00,WUHU216HW,2013-05-02 15:16:00,
2013-05-02 08:18:00,67.9,11.0,30.12,North,0,6.3,13.0,11,0.00,,,0.00,WUHU216HW,2013-05-02 15:18:00,
2013-05-02 08:19:00,67.9,9.4,30.12,NNW,338,4.7,13.0,10,0.00,,,0.00,WUHU216HW,2013-05-02 15:19:00,
2013-05-02 08:20:00,67.9,9.4,30.12,NW,315,5.1,13.0,10,0.00,,,0.00,WUHU216HW,2013-05-02 15:20:00,
2013-05-02 08:21:00,67.9,9.4,30.12,NNW,338,3.1,13.0,10,0.00,,,0.00,WUHU216HW,2013-05-02 15:21:00,
2013-05-02 08:23:00,68.0,11.2,30.12,NW,315,2.2,13.0,11,0.00,,,0.00,WUHU216HW,2013-05-02 15:23:00,
2013-05-02 08:24:00,68.0,11.2,30.12,WNW,293,6.3,7.4,11,0.00,,,0.00,WUHU216HW,2013-05-02 15:24:00,
2013-05-02 08:25:00,68.2,9.6,30.12,NW,315,2.9,6.3,10,0.00,,,0.00,WUHU216HW,2013-05-02 15:25:00,
2013-05-02 08:26:00,68.0,9.5,30.12,NW,315,2.7,6.9,10,0.00,,,0.00,WUHU216HW,2013-05-02 15:26:00,
2013-05-02 08:28:00,68.0,11.2,30.12,NW,315,4.0,6.9,11,0.00,,,0.00,WUHU216HW,2013-05-02 15:28:00,
2013-05-02 08:30:00,68.0,9.5,30.12,NW,315,5.8,7.2,10,0.00,,,0.00,WUHU216HW,2013-05-02 15:30:00,
2013-05-02 08:31:00,68.0,9.5,30.12,NNW,338,3.6,7.2,10,0.00,,,0.00,WUHU216HW,2013-05-02 15:31:00,
2013-05-02 08:32:00,68.0,9.5,30.12,NW,315,4.0,7.2,10,0.00,,,0.00,WUHU216HW,2013-05-02 15:32:00,
2013-05-02 08:34:00,68.0,9.5,30.12,NNW,338,5.1,7.2,10,0.00,,,0.00,WUHU216HW,2013-05-02 15:34:00,
2013-05-02 08:35:00,68.0,9.5,30.12,North,0,2.7,7.2,10,0.00,,,0.00,WUHU216HW,2013-05-02 15:35:00,
2013-05-02 08:36:00,68.0,11.2,30.12,NNW,338,2.7,7.2,11,0.00,,,0.00,WUHU216HW,2013-05-02 15:36:00,
2013-05-02 08:37:00,68.0,11.2,30.13,NNW,338,2.5,7.2,11,0.00,,,0.00,WUHU216HW,2013-05-02 15:37:00,
2013-05-02 08:38:00,68.2,11.3,30.12,West,270,5.8,7.2,11,0.00,,,0.00,WUHU216HW,2013-05-02 15:38:00,
2013-05-02 08:39:00,68.4,11.4,30.12,West,270,4.0,7.2,11,0.00,,,0.00,WUHU216HW,2013-05-02 15:39:00,
2013-05-02 08:40:00,68.6,11.5,30.12,SW,225,4.0,6.0,11,0.00,,,0.00,WUHU216HW,2013-05-02 15:40:00,
2013-05-02 08:41:00,68.6,11.5,30.12,NW,315,5.1,5.8,11,0.00,,,0.00,WUHU216HW,2013-05-02 15:41:00,
2013-05-02 08:43:00,68.8,13.2,30.12,West,270,2.7,5.8,12,0.00,,,0.00,WUHU216HW,2013-05-02 15:43:00,
2013-05-02 08:44:00,69.1,11.9,30.13,North,0,4.7,5.8,11,0.00,,,0.00,WUHU216HW,2013-05-02 15:44:00,
2013-05-02 08:45:00,69.3,12.1,30.13,NW,315,3.6,6.9,11,0.00,,,0.00,WUHU216HW,2013-05-02 15:45:00,
2013-05-02 08:46:00,69.5,12.2,30.13,WSW,248,5.8,6.9,11,0.00,,,0.00,WUHU216HW,2013-05-02 15:46:00,
2013-05-02 08:48:00,69.7,14.0,30.13,SW,225,2.5,6.9,12,0.00,,,0.00,WUHU216HW,2013-05-02 15:48:00,
2013-05-02 08:49:00,69.7,14.0,30.13,North,0,4.9,6.9,12,0.00,,,0.00,WUHU216HW,2013-05-02 15:49:00,
2013-05-02 08:50:00,69.8,12.4,30.13,NW,315,4.0,6.9,11,0.00,,,0.00,WUHU216HW,2013-05-02 15:50:00,
2013-05-02 08:51:00,69.8,10.8,30.13,WNW,293,4.5,6.9,10,0.00,,,0.00,WUHU216HW,2013-05-02 15:51:00,
2013-05-02 08:53:00,69.8,10.8,30.13,North,0,3.1,6.9,10,0.00,,,0.00,WUHU216HW,2013-05-02 15:53:00,
2013-05-02 08:54:00,69.8,12.4,30.13,WNW,293,1.8,6.9,11,0.00,,,0.00,WUHU216HW,2013-05-02 15:54:00,
2013-05-02 08:56:00,69.8,15.7,30.13,NE,45,2.5,5.8,13,0.00,,,0.00,WUHU216HW,2013-05-02 15:56:00,
2013-05-02 08:58:00,70.2,19.2,30.13,NNW,338,0.9,4.9,15,0.00,,,0.00,WUHU216HW,2013-05-02 15:58:00,
2013-05-02 08:59:00,70.2,19.2,30.13,NNW,338,0.9,4.9,15,0.00,,,0.00,WUHU216HW,2013-05-02 15:59:00,
2013-05-02 09:00:00,70.6,16.2,30.13,WNW,293,3.4,4.5,13,0.00,,,0.00,WUHU216HW,2013-05-02 16:00:00,
2013-05-02 09:01:00,70.6,14.6,30.13,WNW,293,4.9,6.0,12,0.00,,,0.00,WUHU216HW,2013-05-02 16:01:00,
2013-05-02 09:03:00,70.7,13.1,30.13,WSW,248,4.0,6.0,11,0.00,,,0.00,WUHU216HW,2013-05-02 16:03:00,
2013-05-02 09:04:00,70.9,11.7,30.13,North,0,4.5,6.0,10,0.00,,,0.00,WUHU216HW,2013-05-02 16:04:00,
2013-05-02 09:05:00,70.7,13.1,30.13,ENE,68,2.7,6.0,11,0.00,,,0.00,WUHU216HW,2013-05-02 16:05:00,
2013-05-02 09:06:00,70.9,16.6,30.13,NE,45,0.4,6.0,13,0.00,,,0.00,WUHU216HW,2013-05-02 16:06:00,
2013-05-02 09:08:00,70.9,21.4,30.13,SE,135,0.0,6.0,16,0.00,,,0.00,WUHU216HW,2013-05-02 16:08:00,
2013-05-02 09:09:00,70.9,21.4,30.13,SE,135,1.3,6.0,16,0.00,,,0.00,WUHU216HW,2013-05-02 16:09:00,
2013-05-02 09:10:00,71.1,23.1,30.13,NE,45,6.3,6.3,17,0.00,,,0.00,WUHU216HW,2013-05-02 16:10:00,
2013-05-02 09:11:00,71.3,23.3,30.14,NE,45,1.8,6.7,17,0.00,,,0.00,WUHU216HW,2013-05-02 16:11:00,
2013-05-02 09:12:00,71.3,21.7,30.14,NE,45,1.8,6.7,16,0.00,,,0.00,WUHU216HW,2013-05-02 16:12:00,
2013-05-02 09:14:00,71.6,22.0,30.13,North,0,1.1,6.7,16,0.00,,,0.00,WUHU216HW,2013-05-02 16:14:00,
2013-05-02 09:15:00,71.8,20.5,30.13,NE,45,1.1,6.7,15,0.00,,,0.00,WUHU216HW,2013-05-02 16:15:00,
2013-05-02 09:17:00,72.0,22.2,30.13,SE,135,0.4,6.7,16,0.00,,,0.00,WUHU216HW,2013-05-02 16:17:00,
2013-05-02 09:19:00,72.2,25.7,30.13,North,0,5.1,6.7,18,0.00,,,0.00,WUHU216HW,2013-05-02 16:19:00,
2013-05-02 09:20:00,72.4,24.2,30.13,NE,45,2.5,6.7,17,0.00,,,0.00,WUHU216HW,2013-05-02 16:20:00,
2013-05-02 09:22:00,72.5,26.0,30.13,East,90,1.1,5.1,18,0.00,,,0.00,WUHU216HW,2013-05-02 16:22:00,
2013-05-02 09:24:00,72.7,18.0,30.13,North,0,0.7,5.1,13,0.00,,,0.00,WUHU216HW,2013-05-02 16:24:00,
2013-05-02 09:25:00,72.9,18.2,30.13,North,0,2.7,5.1,13,0.00,,,0.00,WUHU216HW,2013-05-02 16:25:00,
2013-05-02 09:27:00,72.9,14.9,30.13,West,270,1.6,5.1,11,0.00,,,0.00,WUHU216HW,2013-05-02 16:27:00,
2013-05-02 09:30:00,72.9,14.9,30.13,NNW,338,3.4,3.8,11,0.00,,,0.00,WUHU216HW,2013-05-02 16:30:00,
2013-05-02 09:31:00,72.9,14.9,30.13,NW,315,4.0,4.0,11,0.00,,,0.00,WUHU216HW,2013-05-02 16:31:00,
2013-05-02 09:32:00,72.9,13.2,30.13,NW,315,3.4,4.5,10,0.00,,,0.00,WUHU216HW,2013-05-02 16:32:00,
2013-05-02 09:35:00,73.1,16.7,30.13,WSW,248,3.4,4.5,12,0.00,,,0.00,WUHU216HW,2013-05-02 16:35:00,
2013-05-02 09:36:00,72.9,16.5,30.13,SW,225,1.3,4.5,12,0.00,,,0.00,WUHU216HW,2013-05-02 16:36:00,
2013-05-02 09:37:00,73.1,18.3,30.13,SSW,203,2.5,4.5,13,0.00,,,0.00,WUHU216HW,2013-05-02 16:37:00,
2013-05-02 09:40:00,73.3,21.7,30.13,SSE,158,3.6,4.5,15,0.00,,,0.00,WUHU216HW,2013-05-02 16:40:00,
2013-05-02 09:41:00,73.4,21.9,30.13,SE,135,1.3,4.5,15,0.00,,,0.00,WUHU216HW,2013-05-02 16:41:00,
2013-05-02 09:42:00,73.6,23.7,30.13,NE,45,4.7,4.7,16,0.00,,,0.00,WUHU216HW,2013-05-02 16:42:00,
2013-05-02 09:43:00,73.8,23.8,30.13,SE,135,2.2,4.7,16,0.00,,,0.00,WUHU216HW,2013-05-02 16:43:00,
2013-05-02 09:45:00,74.2,19.1,30.13,NNE,23,4.7,4.7,13,0.00,,,0.00,WUHU216HW,2013-05-02 16:45:00,
2013-05-02 09:46:00,74.2,22.4,30.13,NNE,23,2.2,6.7,15,0.00,,,0.00,WUHU216HW,2013-05-02 16:46:00,
2013-05-02 09:47:00,74.3,22.5,30.13,NNE,23,5.4,6.7,15,0.00,,,0.00,WUHU216HW,2013-05-02 16:47:00,
2013-05-02 09:48:00,74.3,19.3,30.13,North,0,5.6,6.7,13,0.00,,,0.00,WUHU216HW,2013-05-02 16:48:00,
2013-05-02 09:50:00,74.5,22.7,30.13,NW,315,6.3,11.0,15,0.00,,,0.00,WUHU216HW,2013-05-02 16:50:00,
2013-05-02 09:51:00,74.5,19.4,30.13,NNE,23,3.6,11.0,13,0.00,,,0.00,WUHU216HW,2013-05-02 16:51:00,
2013-05-02 09:52:00,74.5,19.4,30.13,NNE,23,3.8,11.0,13,0.00,,,0.00,WUHU216HW,2013-05-02 16:52:00,
2013-05-02 09:53:00,74.5,22.7,30.13,East,90,4.5,11.0,15,0.00,,,0.00,WUHU216HW,2013-05-02 16:53:00,
2013-05-02 09:55:00,74.7,22.9,30.13,NNE,23,0.2,11.0,15,0.00,,,0.00,WUHU216HW,2013-05-02 16:55:00,
2013-05-02 09:56:00,74.9,23.0,30.13,ESE,113,4.9,11.0,15,0.00,,,0.00,WUHU216HW,2013-05-02 16:56:00,
2013-05-02 09:57:00,74.9,24.6,30.13,ESE,113,6.9,11.0,16,0.00,,,0.00,WUHU216HW,2013-05-02 16:57:00,
2013-05-02 09:59:00,74.9,18.0,30.13,NW,315,3.4,11.0,12,0.00,,,0.00,WUHU216HW,2013-05-02 16:59:00,
2013-05-02 10:00:00,75.2,21.6,30.13,East,90,2.9,7.2,14,0.00,,,0.00,WUHU216HW,2013-05-02 17:00:00,
2013-05-02 10:02:00,75.2,23.2,30.13,ESE,113,6.7,10.1,15,0.00,,,0.00,WUHU216HW,2013-05-02 17:02:00,
2013-05-02 10:03:00,75.2,19.9,30.14,NNE,23,7.2,10.1,13,0.00,,,0.00,WUHU216HW,2013-05-02 17:03:00,
2013-05-02 10:04:00,75.2,21.6,30.14,NE,45,9.8,11.9,14,0.00,,,0.00,WUHU216HW,2013-05-02 17:04:00,
2013-05-02 10:06:00,75.2,18.3,30.14,NNW,338,3.4,11.9,12,0.00,,,0.00,WUHU216HW,2013-05-02 17:06:00,
2013-05-02 10:07:00,75.2,19.9,30.14,North,0,9.6,11.9,13,0.00,,,0.00,WUHU216HW,2013-05-02 17:07:00,
2013-05-02 10:08:00,75.2,16.6,30.14,North,0,10.5,11.9,11,0.00,,,0.00,WUHU216HW,2013-05-02 17:08:00,
2013-05-02 10:09:00,75.2,16.6,30.14,NNW,338,5.1,11.9,11,0.00,,,0.00,WUHU216HW,2013-05-02 17:09:00,
2013-05-02 10:11:00,75.4,18.4,30.13,NNE,23,6.3,11.9,12,0.00,,,0.00,WUHU216HW,2013-05-02 17:11:00,
2013-05-02 10:12:00,75.4,18.4,30.13,NNE,23,6.9,11.9,12,0.00,,,0.00,WUHU216HW,2013-05-02 17:12:00,
2013-05-02 10:13:00,75.4,16.7,30.13,NE,45,4.9,11.9,11,0.00,,,0.00,WUHU216HW,2013-05-02 17:13:00,
2013-05-02 10:14:00,75.4,18.4,30.14,NNE,23,9.4,10.5,12,0.00,,,0.00,WUHU216HW,2013-05-02 17:14:00,
2013-05-02 10:16:00,75.6,20.2,30.13,ENE,68,3.8,10.5,13,0.00,,,0.00,WUHU216HW,2013-05-02 17:16:00,
2013-05-02 10:17:00,75.6,20.2,30.13,ENE,68,3.4,10.5,13,0.00,,,0.00,WUHU216HW,2013-05-02 17:17:00,
2013-05-02 10:18:00,75.6,20.2,30.13,ENE,68,4.7,9.4,13,0.00,,,0.00,WUHU216HW,2013-05-02 17:18:00,
2013-05-02 10:19:00,75.8,23.7,30.13,NW,315,1.6,9.4,15,0.00,,,0.00,WUHU216HW,2013-05-02 17:19:00,
2013-05-02 10:21:00,76.0,15.5,30.13,NNW,338,5.1,9.4,10,0.00,,,0.00,WUHU216HW,2013-05-02 17:21:00,
2013-05-02 10:22:00,76.0,18.8,30.13,ENE,68,6.5,9.4,12,0.00,,,0.00,WUHU216HW,2013-05-02 17:22:00,
2013-05-02 10:23:00,76.0,18.8,30.13,NNE,23,7.6,9.4,12,0.00,,,0.00,WUHU216HW,2013-05-02 17:23:00,
2013-05-02 10:24:00,76.1,20.6,30.13,ENE,68,6.3,9.4,13,0.00,,,0.00,WUHU216HW,2013-05-02 17:24:00,
2013-05-02 10:26:00,76.1,23.9,30.13,ENE,68,8.7,9.2,15,0.00,,,0.00,WUHU216HW,2013-05-02 17:26:00,
2013-05-02 10:27:00,76.1,25.6,30.13,East,90,7.8,9.6,16,0.00,,,0.00,WUHU216HW,2013-05-02 17:27:00,
2013-05-02 10:28:00,76.1,25.6,30.13,ENE,68,6.7,9.6,16,0.00,,,0.00,WUHU216HW,2013-05-02 17:28:00,
2013-05-02 10:29:00,76.3,25.7,30.13,NE,45,5.6,9.6,16,0.00,,,0.00,WUHU216HW,2013-05-02 17:29:00,
2013-05-02 10:31:00,76.3,25.7,30.13,SSE,158,6.3,9.6,16,0.00,,,0.00,WUHU216HW,2013-05-02 17:31:00,
2013-05-02 10:32:00,76.3,25.7,30.13,ESE,113,10.5,12.8,16,0.00,,,0.00,WUHU216HW,2013-05-02 17:32:00,
2013-05-02 10:33:00,76.3,25.7,30.13,East,90,8.9,12.8,16,0.00,,,0.00,WUHU216HW,2013-05-02 17:33:00,
2013-05-02 10:35:00,76.5,25.9,30.13,ESE,113,10.7,12.8,16,0.00,,,0.00,WUHU216HW,2013-05-02 17:35:00,
2013-05-02 10:37:00,76.5,25.9,30.13,East,90,7.2,12.8,16,0.00,,,0.00,WUHU216HW,2013-05-02 17:37:00,
2013-05-02 10:38:00,76.7,26.0,30.13,ESE,113,6.5,12.8,16,0.00,,,0.00,WUHU216HW,2013-05-02 17:38:00,
2013-05-02 10:39:00,76.7,26.0,30.13,ESE,113,5.8,12.8,16,0.00,,,0.00,WUHU216HW,2013-05-02 17:39:00,
2013-05-02 10:40:00,76.7,27.7,30.13,ESE,113,11.0,12.8,17,0.00,,,0.00,WUHU216HW,2013-05-02 17:40:00,
2013-05-02 10:42:00,76.9,27.8,30.13,East,90,8.3,12.8,17,0.00,,,0.00,WUHU216HW,2013-05-02 17:42:00,
2013-05-02 10:43:00,76.9,27.8,30.13,ENE,68,4.0,11.9,17,0.00,,,0.00,WUHU216HW,2013-05-02 17:43:00,
2013-05-02 10:44:00,77.0,28.0,30.13,ESE,113,8.1,11.9,17,0.00,,,0.00,WUHU216HW,2013-05-02 17:44:00,
2013-05-02 10:45:00,76.9,27.8,30.13,SSE,158,11.0,11.9,17,0.00,,,0.00,WUHU216HW,2013-05-02 17:45:00,
2013-05-02 10:47:00,77.0,26.3,30.13,ESE,113,5.4,11.9,16,0.00,,,0.00,WUHU216HW,2013-05-02 17:47:00,
2013-05-02 10:48:00,77.2,28.1,30.13,SE,135,9.6,11.9,17,0.00,,,0.00,WUHU216HW,2013-05-02 17:48:00,
2013-05-02 10:49:00,77.4,28.3,30.13,SSE,158,5.4,11.9,17,0.00,,,0.00,WUHU216HW,2013-05-02 17:49:00,
2013-05-02 10:50:00,77.4,28.3,30.13,SE,135,7.6,11.0,17,0.00,,,0.00,WUHU216HW,2013-05-02 17:50:00,
2013-05-02 10:52:00,77.6,30.1,30.13,East,90,8.5,11.0,18,0.00,,,0.00,WUHU216HW,2013-05-02 17:52:00,
2013-05-02 10:54:00,77.4,24.9,30.13,SSE,158,11.4,11.4,15,0.00,,,0.00,WUHU216HW,2013-05-02 17:54:00,
2013-05-02 10:55:00,77.6,26.7,30.13,SSE,158,5.1,11.4,16,0.00,,,0.00,WUHU216HW,2013-05-02 17:55:00,
2013-05-02 10:57:00,77.8,28.5,30.13,East,90,9.6,11.4,17,0.00,,,0.00,WUHU216HW,2013-05-02 17:57:00,
2013-05-02 10:59:00,77.9,28.6,30.13,ENE,68,7.8,12.1,17,0.00,,,0.00,WUHU216HW,2013-05-02 17:59:00,
2013-05-02 11:00:00,77.8,28.5,30.13,ENE,68,7.2,12.1,17,0.00,,,0.00,WUHU216HW,2013-05-02 18:00:00,
2013-05-02 11:01:00,77.8,26.8,30.13,NE,45,3.8,12.1,16,0.00,,,0.00,WUHU216HW,2013-05-02 18:01:00,
2013-05-02 11:02:00,77.6,28.4,30.12,ESE,113,9.6,12.1,17,0.00,,,0.00,WUHU216HW,2013-05-02 18:02:00,
2013-05-02 11:04:00,77.6,28.4,30.13,ESE,113,1.3,12.1,17,0.00,,,0.00,WUHU216HW,2013-05-02 18:04:00,
2013-05-02 11:05:00,77.8,26.8,30.13,ESE,113,3.4,12.1,16,0.00,,,0.00,WUHU216HW,2013-05-02 18:05:00,
2013-05-02 11:06:00,77.8,26.8,30.13,SE,135,4.7,12.1,16,0.00,,,0.00,WUHU216HW,2013-05-02 18:06:00,
2013-05-02 11:08:00,77.8,28.5,30.13,NE,45,3.8,12.1,17,0.00,,,0.00,WUHU216HW,2013-05-02 18:08:00,
2013-05-02 11:09:00,77.8,26.8,30.12,East,90,3.4,12.1,16,0.00,,,0.00,WUHU216HW,2013-05-02 18:09:00,
2013-05-02 11:10:00,77.8,26.8,30.12,SSE,158,6.9,12.1,16,0.00,,,0.00,WUHU216HW,2013-05-02 18:10:00,
2013-05-02 11:11:00,77.8,28.5,30.12,SE,135,6.9,12.1,17,0.00,,,0.00,WUHU216HW,2013-05-02 18:11:00,
2013-05-02 11:13:00,77.9,28.6,30.12,SE,135,2.0,9.2,17,0.00,,,0.00,WUHU216HW,2013-05-02 18:13:00,
2013-05-02 11:14:00,78.1,27.2,30.12,ESE,113,7.8,8.1,16,0.00,,,0.00,WUHU216HW,2013-05-02 18:14:00,
2013-05-02 11:15:00,78.3,29.0,30.12,SE,135,10.1,10.1,17,0.00,,,0.00,WUHU216HW,2013-05-02 18:15:00,
2013-05-02 11:16:00,78.5,29.1,30.12,ENE,68,6.3,10.1,17,0.00,,,0.00,WUHU216HW,2013-05-02 18:16:00,
2013-05-02 11:18:00,78.5,29.1,30.12,ESE,113,9.2,10.7,17,0.00,,,0.00,WUHU216HW,2013-05-02 18:18:00,
2013-05-02 11:20:00,78.7,29.3,30.12,ENE,68,7.4,10.7,17,0.00,,,0.00,WUHU216HW,2013-05-02 18:20:00,
2013-05-02 11:21:00,78.5,29.1,30.12,East,90,8.5,10.7,17,0.00,,,0.00,WUHU216HW,2013-05-02 18:21:00,
2013-05-02 11:23:00,78.5,29.1,30.12,ESE,113,5.4,10.7,17,0.00,,,0.00,WUHU216HW,2013-05-02 18:23:00,
2013-05-02 11:25:00,78.7,29.3,30.12,ENE,68,8.3,10.7,17,0.00,,,0.00,WUHU216HW,2013-05-02 18:25:00,
2013-05-02 11:26:00,78.7,27.5,30.12,ENE,68,4.7,10.7,16,0.00,,,0.00,WUHU216HW,2013-05-02 18:26:00,
2013-05-02 11:27:00,78.7,29.3,30.12,East,90,6.5,10.7,17,0.00,,,0.00,WUHU216HW,2013-05-02 18:27:00,
2013-05-02 11:28:00,78.7,29.3,30.12,SSE,158,1.1,9.8,17,0.00,,,0.00,WUHU216HW,2013-05-02 18:28:00,
2013-05-02 11:30:00,78.8,29.3,30.12,SE,135,6.3,9.8,17,0.00,,,0.00,WUHU216HW,2013-05-02 18:30:00,
2013-05-02 11:31:00,78.8,29.3,30.12,SSW,203,3.4,9.8,17,0.00,,,0.00,WUHU216HW,2013-05-02 18:31:00,
2013-05-02 11:32:00,78.8,29.3,30.12,SE,135,3.1,9.8,17,0.00,,,0.00,WUHU216HW,2013-05-02 18:32:00,
2013-05-02 11:33:00,79.0,29.5,30.12,SE,135,4.0,9.8,17,0.00,,,0.00,WUHU216HW,2013-05-02 18:33:00,
2013-05-02 11:35:00,79.2,29.7,30.12,East,90,2.0,9.8,17,0.00,,,0.00,WUHU216HW,2013-05-02 18:35:00,
2013-05-02 11:36:00,79.4,29.8,30.12,NE,45,1.8,9.8,17,0.00,,,0.00,WUHU216HW,2013-05-02 18:36:00,
2013-05-02 11:37:00,79.6,30.0,30.12,ENE,68,4.0,9.8,17,0.00,,,0.00,WUHU216HW,2013-05-02 18:37:00,
2013-05-02 11:39:00,79.6,30.0,30.12,East,90,4.0,9.6,17,0.00,,,0.00,WUHU216HW,2013-05-02 18:39:00,
2013-05-02 11:40:00,79.7,30.2,30.11,East,90,8.3,8.3,17,0.00,,,0.00,WUHU216HW,2013-05-02 18:40:00,
2013-05-02 11:42:00,79.9,30.3,30.11,ESE,113,12.1,12.1,17,0.00,,,0.00,WUHU216HW,2013-05-02 18:42:00,
2013-05-02 11:43:00,79.9,30.3,30.12,ESE,113,5.8,12.1,17,0.00,,,0.00,WUHU216HW,2013-05-02 18:43:00,
2013-05-02 11:44:00,80.1,30.4,30.12,ESE,113,5.4,12.1,17,0.00,,,0.00,WUHU216HW,2013-05-02 18:44:00,
2013-05-02 11:45:00,80.1,30.4,30.11,ESE,113,7.6,12.1,17,0.00,,,0.00,WUHU216HW,2013-05-02 18:45:00,
2013-05-02 11:47:00,80.3,30.6,30.11,SE,135,7.2,12.1,17,0.00,,,0.00,WUHU216HW,2013-05-02 18:47:00,
2013-05-02 11:48:00,80.3,30.6,30.11,South,180,6.0,12.1,17,0.00,,,0.00,WUHU216HW,2013-05-02 18:48:00,
2013-05-02 11:49:00,80.3,28.9,30.11,South,180,8.7,12.1,16,0.00,,,0.00,WUHU216HW,2013-05-02 18:49:00,
2013-05-02 11:51:00,80.3,28.9,30.11,ENE,68,9.8,12.1,16,0.00,,,0.00,WUHU216HW,2013-05-02 18:51:00,
2013-05-02 11:52:00,80.3,28.9,30.11,NE,45,2.7,11.4,16,0.00,,,0.00,WUHU216HW,2013-05-02 18:52:00,
2013-05-02 11:53:00,80.3,28.9,30.11,ENE,68,3.8,11.4,16,0.00,,,0.00,WUHU216HW,2013-05-02 18:53:00,
2013-05-02 11:54:00,80.3,28.9,30.11,NE,45,7.6,11.4,16,0.00,,,0.00,WUHU216HW,2013-05-02 18:54:00,
2013-05-02 11:56:00,80.1,28.8,30.11,NE,45,6.3,11.4,16,0.00,,,0.00,WUHU216HW,2013-05-02 18:56:00,
2013-05-02 11:58:00,79.9,28.6,30.11,NE,45,7.6,10.7,16,0.00,,,0.00,WUHU216HW,2013-05-02 18:58:00,
2013-05-02 12:00:00,79.6,28.3,30.11,ENE,68,3.6,10.7,16,0.00,,,0.00,WUHU216HW,2013-05-02 19:00:00,
2013-05-02 12:01:00,79.6,28.3,30.11,NW,315,4.0,10.7,16,0.00,,,0.00,WUHU216HW,2013-05-02 19:01:00,
2013-05-02 12:03:00,79.6,23.2,30.11,NNE,23,3.8,10.7,13,0.00,,,0.00,WUHU216HW,2013-05-02 19:03:00,
2013-05-02 12:05:00,79.6,26.7,30.10,ENE,68,7.8,8.9,15,0.00,,,0.00,WUHU216HW,2013-05-02 19:05:00,
2013-05-02 12:06:00,79.6,26.7,30.10,NE,45,6.0,8.9,15,0.00,,,0.00,WUHU216HW,2013-05-02 19:06:00,
2013-05-02 12:08:00,79.6,26.7,30.10,SE,135,2.9,8.9,15,0.00,,,0.00,WUHU216HW,2013-05-02 19:08:00,
2013-05-02 12:09:00,79.6,26.7,30.10,ENE,68,10.5,10.5,15,0.00,,,0.00,WUHU216HW,2013-05-02 19:09:00,
2013-05-02 12:10:00,79.7,28.4,30.10,NNE,23,7.6,10.5,16,0.00,,,0.00,WUHU216HW,2013-05-02 19:10:00,
2013-05-02 12:11:00,79.9,28.6,30.10,ENE,68,5.8,10.5,16,0.00,,,0.00,WUHU216HW,2013-05-02 19:11:00,
2013-05-02 12:13:00,79.9,30.3,30.10,NE,45,9.4,10.5,17,0.00,,,0.00,WUHU216HW,2013-05-02 19:13:00,
2013-05-02 12:14:00,79.9,28.6,30.10,NE,45,8.9,10.5,16,0.00,,,0.00,WUHU216HW,2013-05-02 19:14:00,
2013-05-02 12:15:00,79.9,26.9,30.10,ENE,68,11.0,12.1,15,0.00,,,0.00,WUHU216HW,2013-05-02 19:15:00,
2013-05-02 12:16:00,79.9,23.6,30.10,NE,45,12.1,12.1,13,0.00,,,0.00,WUHU216HW,2013-05-02 19:16:00,
2013-05-02 12:18:00,79.7,23.4,30.10,NE,45,5.4,12.1,13,0.00,,,0.00,WUHU216HW,2013-05-02 19:18:00,
2013-05-02 12:19:00,79.7,26.8,30.10,NNE,23,10.3,12.1,15,0.00,,,0.00,WUHU216HW,2013-05-02 19:19:00,
2013-05-02 12:20:00,79.7,23.4,30.10,NE,45,6.9,12.1,13,0.00,,,0.00,WUHU216HW,2013-05-02 19:20:00,
2013-05-02 12:21:00,79.7,21.7,30.10,WSW,248,1.8,12.1,12,0.00,,,0.00,WUHU216HW,2013-05-02 19:21:00,
2013-05-02 12:23:00,79.7,23.4,30.10,ENE,68,5.4,12.1,13,0.00,,,0.00,WUHU216HW,2013-05-02 19:23:00,
2013-05-02 12:24:00,79.7,26.8,30.10,NE,45,2.7,12.1,15,0.00,,,0.00,WUHU216HW,2013-05-02 19:24:00,
2013-05-02 12:25:00,79.7,26.8,30.10,North,0,9.8,12.1,15,0.00,,,0.00,WUHU216HW,2013-05-02 19:25:00,
2013-05-02 12:27:00,79.7,21.7,30.10,NE,45,2.0,10.3,12,0.00,,,0.00,WUHU216HW,2013-05-02 19:27:00,
2013-05-02 12:28:00,79.9,23.6,30.10,ENE,68,4.7,10.3,13,0.00,,,0.00,WUHU216HW,2013-05-02 19:28:00,
2013-05-02 12:29:00,79.9,23.6,30.10,North,0,3.4,10.1,13,0.00,,,0.00,WUHU216HW,2013-05-02 19:29:00,
2013-05-02 12:30:00,80.1,23.7,30.10,ENE,68,1.6,9.8,13,0.00,,,0.00,WUHU216HW,2013-05-02 19:30:00,
2013-05-02 12:32:00,80.3,28.9,30.10,ESE,113,7.6,9.8,16,0.00,,,0.00,WUHU216HW,2013-05-02 19:32:00,
2013-05-02 12:33:00,80.3,28.9,30.10,SE,135,4.9,9.8,16,0.00,,,0.00,WUHU216HW,2013-05-02 19:33:00,
2013-05-02 12:35:00,80.5,27.4,30.10,NNW,338,0.4,9.8,15,0.00,,,0.00,WUHU216HW,2013-05-02 19:35:00,
2013-05-02 12:37:00,80.5,22.3,30.10,NNW,338,2.0,7.6,12,0.00,,,0.00,WUHU216HW,2013-05-02 19:37:00,
2013-05-02 12:39:00,80.3,22.1,30.09,North,0,3.1,7.6,12,0.00,,,0.00,WUHU216HW,2013-05-02 19:39:00,
2013-05-02 12:40:00,80.3,22.1,30.09,NNW,338,0.9,7.6,12,0.00,,,0.00,WUHU216HW,2013-05-02 19:40:00,
2013-05-02 12:42:00,80.3,22.1,30.09,NW,315,0.4,6.9,12,0.00,,,0.00,WUHU216HW,2013-05-02 19:42:00,
2013-05-02 12:44:00,80.5,24.0,30.09,NE,45,4.0,5.4,13,0.00,,,0.00,WUHU216HW,2013-05-02 19:44:00,
2013-05-02 12:45:00,80.5,27.4,30.09,East,90,7.8,7.8,15,0.00,,,0.00,WUHU216HW,2013-05-02 19:45:00,
2013-05-02 12:46:00,80.6,27.5,30.09,NNE,23,7.8,13.2,15,0.00,,,0.00,WUHU216HW,2013-05-02 19:46:00,
2013-05-02 12:47:00,80.6,24.1,30.09,NE,45,9.2,13.2,13,0.00,,,0.00,WUHU216HW,2013-05-02 19:47:00,
2013-05-02 12:49:00,80.6,22.5,30.09,NNW,338,3.8,13.2,12,0.00,,,0.00,WUHU216HW,2013-05-02 19:49:00,
2013-05-02 12:50:00,80.6,24.1,30.09,ESE,113,5.1,13.2,13,0.00,,,0.00,WUHU216HW,2013-05-02 19:50:00,
2013-05-02 12:51:00,80.6,24.1,30.09,ENE,68,6.5,13.2,13,0.00,,,0.00,WUHU216HW,2013-05-02 19:51:00,
2013-05-02 12:52:00,80.5,25.8,30.09,NE,45,9.6,13.2,14,0.00,,,0.00,WUHU216HW,2013-05-02 19:52:00,
2013-05-02 12:55:00,80.5,24.0,30.09,NE,45,5.4,13.2,13,0.00,,,0.00,WUHU216HW,2013-05-02 19:55:00,
2013-05-02 12:56:00,80.5,24.0,30.09,ENE,68,7.6,12.1,13,0.00,,,0.00,WUHU216HW,2013-05-02 19:56:00,
2013-05-02 12:57:00,80.5,22.3,30.09,ENE,68,5.1,12.5,12,0.00,,,0.00,WUHU216HW,2013-05-02 19:57:00,
2013-05-02 13:00:00,80.5,24.0,30.09,NE,45,4.9,12.5,13,0.00,,,0.00,WUHU216HW,2013-05-02 20:00:00,
2013-05-02 13:01:00,80.5,24.0,30.08,NE,45,6.7,12.5,13,0.00,,,0.00,WUHU216HW,2013-05-02 20:01:00,
2013-05-02 13:02:00,80.5,27.4,30.08,ENE,68,7.4,12.5,15,0.00,,,0.00,WUHU216HW,2013-05-02 20:02:00,
2013-05-02 13:05:00,80.5,27.4,30.08,ENE,68,4.7,12.5,15,0.00,,,0.00,WUHU216HW,2013-05-02 20:05:00,
2013-05-02 13:07:00,80.6,29.3,30.09,ENE,68,8.3,12.5,16,0.00,,,0.00,WUHU216HW,2013-05-02 20:07:00,
2013-05-02 13:08:00,80.6,29.3,30.08,ENE,68,4.0,12.1,16,0.00,,,0.00,WUHU216HW,2013-05-02 20:08:00,
2013-05-02 13:10:00,80.6,27.5,30.08,NNE,23,6.3,12.1,15,0.00,,,0.00,WUHU216HW,2013-05-02 20:10:00,
2013-05-02 13:11:00,80.6,27.5,30.08,ENE,68,3.8,12.1,15,0.00,,,0.00,WUHU216HW,2013-05-02 20:11:00,
2013-05-02 13:12:00,80.6,27.5,30.08,SE,135,4.5,12.1,15,0.00,,,0.00,WUHU216HW,2013-05-02 20:12:00,
2013-05-02 13:13:00,80.6,27.5,30.08,ENE,68,10.3,13.6,15,0.00,,,0.00,WUHU216HW,2013-05-02 20:13:00,
2013-05-02 13:15:00,80.6,24.1,30.08,ENE,68,6.3,13.6,13,0.00,,,0.00,WUHU216HW,2013-05-02 20:15:00,
2013-05-02 13:16:00,80.6,27.5,30.08,ENE,68,6.3,13.6,15,0.00,,,0.00,WUHU216HW,2013-05-02 20:16:00,
2013-05-02 13:17:00,80.6,25.8,30.08,ENE,68,7.4,13.6,14,0.00,,,0.00,WUHU216HW,2013-05-02 20:17:00,
2013-05-02 13:18:00,80.6,27.5,30.08,SSE,158,1.6,13.6,15,0.00,,,0.00,WUHU216HW,2013-05-02 20:18:00,
2013-05-02 13:21:00,80.8,27.7,30.08,NE,45,2.9,13.6,15,0.00,,,0.00,WUHU216HW,2013-05-02 20:21:00,
2013-05-02 13:22:00,81.0,27.8,30.08,NNE,23,2.5,13.6,15,0.00,,,0.00,WUHU216HW,2013-05-02 20:22:00,
2013-05-02 13:23:00,81.0,29.5,30.08,ENE,68,6.0,11.4,16,0.00,,,0.00,WUHU216HW,2013-05-02 20:23:00,
2013-05-02 13:26:00,81.2,29.7,30.08,NNE,23,9.4,9.4,16,0.00,,,0.00,WUHU216HW,2013-05-02 20:26:00,
2013-05-02 13:27:00,81.2,28.0,30.08,ENE,68,8.5,9.4,15,0.00,,,0.00,WUHU216HW,2013-05-02 20:27:00,
2013-05-02 13:29:00,81.2,28.0,30.08,ENE,68,8.5,9.4,15,0.00,,,0.00,WUHU216HW,2013-05-02 20:29:00,
2013-05-02 13:31:00,81.4,28.1,30.08,NE,45,3.1,9.4,15,0.00,,,0.00,WUHU216HW,2013-05-02 20:31:00,
2013-05-02 13:32:00,81.4,28.1,30.08,NE,45,3.1,9.4,15,0.00,,,0.00,WUHU216HW,2013-05-02 20:32:00,
2013-05-02 13:34:00,81.5,28.3,30.08,East,90,5.6,9.4,15,0.00,,,0.00,WUHU216HW,2013-05-02 20:34:00,
2013-05-02 13:36:00,81.7,28.5,30.08,ENE,68,6.5,9.4,15,0.00,,,0.00,WUHU216HW,2013-05-02 20:36:00,
2013-05-02 13:37:00,81.7,28.5,30.08,ENE,68,3.4,9.4,15,0.00,,,0.00,WUHU216HW,2013-05-02 20:37:00,
2013-05-02 13:40:00,81.7,30.1,30.08,SE,135,8.1,9.4,16,0.00,,,0.00,WUHU216HW,2013-05-02 20:40:00,
2013-05-02 13:41:00,81.7,30.1,30.08,SE,135,6.9,9.4,16,0.00,,,0.00,WUHU216HW,2013-05-02 20:41:00,
2013-05-02 13:42:00,81.9,30.2,30.08,SE,135,5.8,9.4,16,0.00,,,0.00,WUHU216HW,2013-05-02 20:42:00,
2013-05-02 13:43:00,81.9,28.5,30.08,ESE,113,6.9,9.2,15,0.00,,,0.00,WUHU216HW,2013-05-02 20:43:00,
2013-05-02 13:45:00,82.1,28.7,30.08,NE,45,8.3,21.5,15,0.00,,,0.00,WUHU216HW,2013-05-02 20:45:00,
2013-05-02 13:47:00,81.9,28.5,30.08,SSE,158,5.4,21.5,15,0.00,,,0.00,WUHU216HW,2013-05-02 20:47:00,
2013-05-02 13:48:00,81.9,30.2,30.08,ENE,68,6.3,21.5,16,0.00,,,0.00,WUHU216HW,2013-05-02 20:48:00,
2013-05-02 13:50:00,82.1,30.4,30.09,ENE,68,6.7,21.5,16,0.00,,,0.00,WUHU216HW,2013-05-02 20:50:00,
2013-05-02 13:52:00,82.1,30.4,30.09,NNE,23,5.6,21.5,16,0.00,,,0.00,WUHU216HW,2013-05-02 20:52:00,
2013-05-02 13:53:00,82.1,30.4,30.09,East,90,8.1,21.5,16,0.00,,,0.00,WUHU216HW,2013-05-02 20:53:00,
2013-05-02 13:55:00,81.9,28.5,30.09,NE,45,7.4,10.7,15,0.00,,,0.00,WUHU216HW,2013-05-02 20:55:00,
2013-05-02 13:57:00,81.9,25.2,30.09,North,0,7.2,10.7,13,0.00,,,0.00,WUHU216HW,2013-05-02 20:57:00,
2013-05-02 13:58:00,81.9,26.8,30.09,NNE,23,9.8,10.7,14,0.00,,,0.00,WUHU216HW,2013-05-02 20:58:00,
2013-05-02 14:00:00,81.7,26.7,30.09,ESE,113,14.1,14.1,14,0.00,,,0.00,WUHU216HW,2013-05-02 21:00:00,
2013-05-02 14:03:00,81.9,28.5,30.09,SSE,158,6.9,14.1,15,0.00,,,0.00,WUHU216HW,2013-05-02 21:03:00,
2013-05-02 14:04:00,81.9,28.5,30.09,SSE,158,12.3,14.1,15,0.00,,,0.00,WUHU216HW,2013-05-02 21:04:00,
2013-05-02 14:06:00,82.3,25.5,30.09,ESE,113,9.8,14.1,13,0.00,,,0.00,WUHU216HW,2013-05-02 21:06:00,
2013-05-02 14:08:00,82.4,29.0,30.09,ESE,113,8.5,14.1,15,0.00,,,0.00,WUHU216HW,2013-05-02 21:08:00,
2013-05-02 14:09:00,82.4,29.0,30.09,SE,135,14.3,14.3,15,0.00,,,0.00,WUHU216HW,2013-05-02 21:09:00,
2013-05-02 14:11:00,82.6,29.1,30.09,ENE,68,9.6,16.8,15,0.00,,,0.00,WUHU216HW,2013-05-02 21:11:00,
2013-05-02 14:13:00,82.4,30.7,30.09,NE,45,7.6,16.8,16,0.00,,,0.00,WUHU216HW,2013-05-02 21:13:00,
2013-05-02 14:14:00,82.4,29.0,30.09,ENE,68,8.5,16.8,15,0.00,,,0.00,WUHU216HW,2013-05-02 21:14:00,
2013-05-02 14:16:00,82.1,28.7,30.09,SE,135,8.7,16.8,15,0.00,,,0.00,WUHU216HW,2013-05-02 21:16:00,
2013-05-02 14:18:00,82.1,28.7,30.09,SE,135,8.5,16.8,15,0.00,,,0.00,WUHU216HW,2013-05-02 21:18:00,
2013-05-02 14:19:00,82.1,25.3,30.09,South,180,10.1,16.8,13,0.00,,,0.00,WUHU216HW,2013-05-02 21:19:00,
2013-05-02 14:22:00,82.1,25.3,30.09,NE,45,11.0,16.6,13,0.00,,,0.00,WUHU216HW,2013-05-02 21:22:00,
2013-05-02 14:23:00,82.1,25.3,30.09,ENE,68,9.4,16.6,13,0.00,,,0.00,WUHU216HW,2013-05-02 21:23:00,
2013-05-02 14:24:00,81.9,25.2,30.09,East,90,8.9,16.6,13,0.00,,,0.00,WUHU216HW,2013-05-02 21:24:00,
2013-05-02 14:27:00,81.9,25.2,30.09,ENE,68,5.4,16.6,13,0.00,,,0.00,WUHU216HW,2013-05-02 21:27:00,
2013-05-02 14:28:00,81.7,28.5,30.09,NE,45,4.3,16.6,15,0.00,,,0.00,WUHU216HW,2013-05-02 21:28:00,
2013-05-02 14:29:00,81.7,28.5,30.09,NNE,23,3.4,16.6,15,0.00,,,0.00,WUHU216HW,2013-05-02 21:29:00,
2013-05-02 14:32:00,81.7,28.5,30.08,ESE,113,6.3,12.8,15,0.00,,,0.00,WUHU216HW,2013-05-02 21:32:00,
2013-05-02 14:33:00,81.9,28.5,30.08,SE,135,6.9,11.9,15,0.00,,,0.00,WUHU216HW,2013-05-02 21:33:00,
2013-05-02 14:34:00,81.9,30.2,30.08,NE,45,7.8,11.9,16,0.00,,,0.00,WUHU216HW,2013-05-02 21:34:00,
2013-05-02 14:35:00,81.9,28.5,30.08,NE,45,2.7,11.9,15,0.00,,,0.00,WUHU216HW,2013-05-02 21:35:00,
2013-05-02 14:38:00,81.9,25.2,30.08,ENE,68,7.2,9.4,13,0.00,,,0.00,WUHU216HW,2013-05-02 21:38:00,
2013-05-02 14:39:00,81.9,28.5,30.08,ENE,68,8.9,9.4,15,0.00,,,0.00,WUHU216HW,2013-05-02 21:39:00,
2013-05-02 14:40:00,81.9,30.2,30.08,ENE,68,11.9,11.9,16,0.00,,,0.00,WUHU216HW,2013-05-02 21:40:00,
2013-05-02 14:43:00,81.7,25.0,30.08,East,90,9.2,12.8,13,0.00,,,0.00,WUHU216HW,2013-05-02 21:43:00,
2013-05-02 14:44:00,81.7,28.5,30.08,ENE,68,9.4,12.8,15,0.00,,,0.00,WUHU216HW,2013-05-02 21:44:00,
2013-05-02 14:45:00,81.7,28.5,30.08,ENE,68,6.3,12.8,15,0.00,,,0.00,WUHU216HW,2013-05-02 21:45:00,
2013-05-02 14:48:00,81.7,28.5,30.08,ENE,68,3.4,12.8,15,0.00,,,0.00,WUHU216HW,2013-05-02 21:48:00,
2013-05-02 14:49:00,81.7,30.1,30.08,ENE,68,5.1,12.8,16,0.00,,,0.00,WUHU216HW,2013-05-02 21:49:00,
2013-05-02 14:50:00,81.9,30.2,30.07,NE,45,9.4,12.8,16,0.00,,,0.00,WUHU216HW,2013-05-02 21:50:00,
2013-05-02 14:53:00,81.9,25.2,30.07,ENE,68,2.0,9.8,13,0.00,,,0.00,WUHU216HW,2013-05-02 21:53:00,
2013-05-02 14:54:00,81.9,25.2,30.07,East,90,4.0,9.8,13,0.00,,,0.00,WUHU216HW,2013-05-02 21:54:00,
2013-05-02 14:55:00,81.9,28.5,30.07,ENE,68,7.6,9.8,15,0.00,,,0.00,WUHU216HW,2013-05-02 21:55:00,
2013-05-02 14:58:00,81.9,25.2,30.07,East,90,9.8,17.0,13,0.00,,,0.00,WUHU216HW,2013-05-02 21:58:00,
2013-05-02 14:59:00,81.9,28.5,30.07,ENE,68,11.9,17.0,15,0.00,,,0.00,WUHU216HW,2013-05-02 21:59:00,
2013-05-02 15:00:00,81.9,23.5,30.07,SE,135,12.8,17.0,12,0.00,,,0.00,WUHU216HW,2013-05-02 22:00:00,
2013-05-02 15:04:00,81.9,28.5,30.07,NNE,23,8.5,23.5,15,0.00,,,0.00,WUHU216HW,2013-05-02 22:04:00,
2013-05-02 15:05:00,81.9,28.5,30.07,NNE,23,8.5,23.5,15,0.00,,,0.00,WUHU216HW,2013-05-02 22:05:00,
2013-05-02 15:06:00,81.9,25.2,30.07,North,0,6.9,23.5,13,0.00,,,0.00,WUHU216HW,2013-05-02 22:06:00,
2013-05-02 15:09:00,81.7,28.5,30.07,SE,135,4.0,23.5,15,0.00,,,0.00,WUHU216HW,2013-05-02 22:09:00,
2013-05-02 15:10:00,81.7,28.5,30.07,SE,135,3.8,23.5,15,0.00,,,0.00,WUHU216HW,2013-05-02 22:10:00,
2013-05-02 15:11:00,81.9,28.5,30.07,ESE,113,8.7,8.7,15,0.00,,,0.00,WUHU216HW,2013-05-02 22:11:00,
2013-05-02 15:15:00,82.1,30.4,30.07,NE,45,5.6,9.8,16,0.00,,,0.00,WUHU216HW,2013-05-02 22:15:00,
2013-05-02 15:16:00,82.1,30.4,30.07,East,90,8.9,9.8,16,0.00,,,0.00,WUHU216HW,2013-05-02 22:16:00,
2013-05-02 15:20:00,82.1,30.4,30.07,SE,135,9.2,12.8,16,0.00,,,0.00,WUHU216HW,2013-05-02 22:20:00,
2013-05-02 15:21:00,82.1,30.4,30.07,SE,135,8.9,12.8,16,0.00,,,0.00,WUHU216HW,2013-05-02 22:21:00,
2013-05-02 15:22:00,82.1,30.4,30.07,SE,135,8.3,12.8,16,0.00,,,0.00,WUHU216HW,2013-05-02 22:22:00,
2013-05-02 15:25:00,82.3,30.5,30.06,ESE,113,10.3,12.8,16,0.00,,,0.00,WUHU216HW,2013-05-02 22:25:00,
2013-05-02 15:26:00,82.1,30.4,30.06,East,90,11.4,12.8,16,0.00,,,0.00,WUHU216HW,2013-05-02 22:26:00,
2013-05-02 15:27:00,82.3,30.5,30.07,ESE,113,10.3,12.8,16,0.00,,,0.00,WUHU216HW,2013-05-02 22:27:00,
2013-05-02 15:30:00,82.3,30.5,30.06,ESE,113,8.7,13.2,16,0.00,,,0.00,WUHU216HW,2013-05-02 22:30:00,
2013-05-02 15:31:00,82.1,30.4,30.06,East,90,7.6,13.2,16,0.00,,,0.00,WUHU216HW,2013-05-02 22:31:00,
2013-05-02 15:32:00,82.1,30.4,30.06,SE,135,7.6,13.2,16,0.00,,,0.00,WUHU216HW,2013-05-02 22:32:00,
2013-05-02 15:35:00,82.1,30.4,30.06,SE,135,9.8,17.0,16,0.00,,,0.00,WUHU216HW,2013-05-02 22:35:00,
2013-05-02 15:36:00,81.9,30.2,30.06,East,90,9.2,17.0,16,0.00,,,0.00,WUHU216HW,2013-05-02 22:36:00,
2013-05-02 15:37:00,82.1,30.4,30.06,East,90,11.2,17.0,16,0.00,,,0.00,WUHU216HW,2013-05-02 22:37:00,
2013-05-02 15:40:00,81.7,30.1,30.06,East,90,6.7,17.0,16,0.00,,,0.00,WUHU216HW,2013-05-02 22:40:00,
2013-05-02 15:41:00,81.7,30.1,30.06,East,90,13.4,17.0,16,0.00,,,0.00,WUHU216HW,2013-05-02 22:41:00,
2013-05-02 15:42:00,81.7,31.8,30.06,East,90,10.5,17.0,17,0.00,,,0.00,WUHU216HW,2013-05-02 22:42:00,
2013-05-02 15:45:00,81.4,29.8,30.06,ENE,68,4.0,13.4,16,0.00,,,0.00,WUHU216HW,2013-05-02 22:45:00,
2013-05-02 15:46:00,81.4,29.8,30.06,East,90,9.6,13.4,16,0.00,,,0.00,WUHU216HW,2013-05-02 22:46:00,
2013-05-02 15:47:00,81.2,29.7,30.06,ENE,68,8.3,13.4,16,0.00,,,0.00,WUHU216HW,2013-05-02 22:47:00,
2013-05-02 15:50:00,81.0,29.5,30.06,ENE,68,4.7,13.4,16,0.00,,,0.00,WUHU216HW,2013-05-02 22:50:00,
2013-05-02 15:51:00,81.2,29.7,30.06,ESE,113,8.1,11.4,16,0.00,,,0.00,WUHU216HW,2013-05-02 22:51:00,
2013-05-02 15:52:00,81.2,31.3,30.06,ENE,68,10.5,11.2,17,0.00,,,0.00,WUHU216HW,2013-05-02 22:52:00,
2013-05-02 15:55:00,81.0,31.2,30.06,East,90,8.1,12.1,17,0.00,,,0.00,WUHU216HW,2013-05-02 22:55:00,
2013-05-02 15:56:00,81.0,31.2,30.06,East,90,10.5,12.1,17,0.00,,,0.00,WUHU216HW,2013-05-02 22:56:00,
2013-05-02 15:57:00,81.0,31.2,30.06,ENE,68,9.4,12.1,17,0.00,,,0.00,WUHU216HW,2013-05-02 22:57:00,
2013-05-02 15:58:00,81.2,31.3,30.06,ESE,113,8.5,12.1,17,0.00,,,0.00,WUHU216HW,2013-05-02 22:58:00,
2013-05-02 16:00:00,81.0,31.2,30.06,ENE,68,9.2,12.1,17,0.00,,,0.00,WUHU216HW,2013-05-02 23:00:00,
2013-05-02 16:01:00,81.0,31.2,30.06,East,90,11.4,12.1,17,0.00,,,0.00,WUHU216HW,2013-05-02 23:01:00,
2013-05-02 16:02:00,80.8,31.1,30.06,SSE,158,11.0,12.1,17,0.00,,,0.00,WUHU216HW,2013-05-02 23:02:00,
2013-05-02 16:03:00,80.8,31.1,30.06,SE,135,10.5,12.1,17,0.00,,,0.00,WUHU216HW,2013-05-02 23:03:00,
2013-05-02 16:05:00,80.8,31.1,30.06,SE,135,7.4,11.9,17,0.00,,,0.00,WUHU216HW,2013-05-02 23:05:00,
2013-05-02 16:07:00,81.0,31.2,30.06,East,90,12.3,14.1,17,0.00,,,0.00,WUHU216HW,2013-05-02 23:07:00,
2013-05-02 16:08:00,80.8,31.1,30.06,SE,135,13.4,14.1,17,0.00,,,0.00,WUHU216HW,2013-05-02 23:08:00,
2013-05-02 16:10:00,80.8,29.3,30.06,SE,135,7.6,14.1,16,0.00,,,0.00,WUHU216HW,2013-05-02 23:10:00,
2013-05-02 16:12:00,80.8,29.3,30.06,East,90,6.3,14.1,16,0.00,,,0.00,WUHU216HW,2013-05-02 23:12:00,
2013-05-02 16:13:00,81.0,29.5,30.06,SE,135,15.0,15.0,16,0.00,,,0.00,WUHU216HW,2013-05-02 23:13:00,
2013-05-02 16:16:00,80.8,31.1,30.06,SE,135,6.0,15.7,17,0.00,,,0.00,WUHU216HW,2013-05-02 23:16:00,
2013-05-02 16:17:00,81.0,31.2,30.06,ENE,68,6.5,15.7,17,0.00,,,0.00,WUHU216HW,2013-05-02 23:17:00,
2013-05-02 16:18:00,81.0,31.2,30.06,ESE,113,6.5,15.7,17,0.00,,,0.00,WUHU216HW,2013-05-02 23:18:00,
2013-05-02 16:19:00,80.8,31.1,30.06,NE,45,12.5,15.7,17,0.00,,,0.00,WUHU216HW,2013-05-02 23:19:00,
2013-05-02 16:21:00,80.8,31.1,30.06,NE,45,10.5,15.7,17,0.00,,,0.00,WUHU216HW,2013-05-02 23:21:00,
2013-05-02 16:23:00,80.8,29.3,30.05,SE,135,8.5,15.7,16,0.00,,,0.00,WUHU216HW,2013-05-02 23:23:00,
2013-05-02 16:24:00,80.6,31.0,30.05,East,90,9.4,13.6,17,0.00,,,0.00,WUHU216HW,2013-05-02 23:24:00,
2013-05-02 16:26:00,80.5,30.8,30.05,ESE,113,7.2,13.6,17,0.00,,,0.00,WUHU216HW,2013-05-02 23:26:00,
2013-05-02 16:28:00,80.5,30.8,30.05,East,90,11.4,13.6,17,0.00,,,0.00,WUHU216HW,2013-05-02 23:28:00,
2013-05-02 16:29:00,80.5,30.8,30.05,ENE,68,9.2,13.6,17,0.00,,,0.00,WUHU216HW,2013-05-02 23:29:00,
2013-05-02 16:31:00,80.5,30.8,30.05,SSE,158,11.0,12.1,17,0.00,,,0.00,WUHU216HW,2013-05-02 23:31:00,
2013-05-02 16:33:00,80.5,30.8,30.06,ESE,113,11.4,12.1,17,0.00,,,0.00,WUHU216HW,2013-05-02 23:33:00,
2013-05-02 16:34:00,80.5,32.5,30.06,SE,135,5.8,12.1,18,0.00,,,0.00,WUHU216HW,2013-05-02 23:34:00,
2013-05-02 16:35:00,80.5,30.8,30.05,SSE,158,4.0,12.1,17,0.00,,,0.00,WUHU216HW,2013-05-02 23:35:00,
2013-05-02 16:37:00,80.6,31.0,30.06,ESE,113,13.2,13.2,17,0.00,,,0.00,WUHU216HW,2013-05-02 23:37:00,
2013-05-02 16:38:00,80.6,31.0,30.05,ESE,113,9.6,13.4,17,0.00,,,0.00,WUHU216HW,2013-05-02 23:38:00,
2013-05-02 16:39:00,80.6,31.0,30.05,SE,135,13.4,13.4,17,0.00,,,0.00,WUHU216HW,2013-05-02 23:39:00,
2013-05-02 16:40:00,80.6,31.0,30.06,SE,135,8.3,13.4,17,0.00,,,0.00,WUHU216HW,2013-05-02 23:40:00,
2013-05-02 16:42:00,80.8,31.1,30.06,SE,135,7.4,13.4,17,0.00,,,0.00,WUHU216HW,2013-05-02 23:42:00,
2013-05-02 16:43:00,80.8,31.1,30.06,SE,135,11.0,13.4,17,0.00,,,0.00,WUHU216HW,2013-05-02 23:43:00,
2013-05-02 16:44:00,81.0,31.2,30.06,SE,135,15.0,15.0,17,0.00,,,0.00,WUHU216HW,2013-05-02 23:44:00,
2013-05-02 16:45:00,81.0,31.2,30.05,SE,135,11.9,15.0,17,0.00,,,0.00,WUHU216HW,2013-05-02 23:45:00,
2013-05-02 16:49:00,81.2,31.3,30.06,SE,135,13.2,15.0,17,0.00,,,0.00,WUHU216HW,2013-05-02 23:49:00,
2013-05-02 16:50:00,81.2,31.3,30.05,ESE,113,19.5,19.5,17,0.00,,,0.00,WUHU216HW,2013-05-02 23:50:00,
2013-05-02 16:54:00,81.0,29.5,30.06,SSE,158,13.6,19.5,16,0.00,,,0.00,WUHU216HW,2013-05-02 23:54:00,
2013-05-02 16:55:00,81.0,29.5,30.06,SE,135,12.1,19.5,16,0.00,,,0.00,WUHU216HW,2013-05-02 23:55:00,
2013-05-02 16:59:00,81.0,31.2,30.06,SE,135,12.8,19.5,17,0.00,,,0.00,WUHU216HW,2013-05-02 23:59:00,
2013-05-02 17:01:00,81.0,31.2,30.06,SE,135,9.6,17.4,17,0.00,,,0.00,WUHU216HW,2013-05-03 00:01:00,
2013-05-02 17:04:00,80.8,32.8,30.06,ESE,113,11.4,17.4,18,0.00,,,0.00,WUHU216HW,2013-05-03 00:04:00,
2013-05-02 17:06:00,80.8,31.1,30.06,ESE,113,15.4,16.1,17,0.00,,,0.00,WUHU216HW,2013-05-03 00:06:00,
2013-05-02 17:09:00,81.0,31.2,30.06,SE,135,13.4,16.1,17,0.00,,,0.00,WUHU216HW,2013-05-03 00:09:00,
2013-05-02 17:11:00,81.2,31.3,30.06,SSE,158,12.8,17.0,17,0.00,,,0.00,WUHU216HW,2013-05-03 00:11:00,
2013-05-02 17:14:00,81.4,29.8,30.06,ESE,113,13.9,17.0,16,0.00,,,0.00,WUHU216HW,2013-05-03 00:14:00,
2013-05-02 17:15:00,81.4,29.8,30.06,ESE,113,13.9,17.0,16,0.00,,,0.00,WUHU216HW,2013-05-03 00:15:00,
2013-05-02 17:16:00,81.4,31.5,30.06,ESE,113,15.0,17.0,17,0.00,,,0.00,WUHU216HW,2013-05-03 00:16:00,
2013-05-02 17:20:00,81.4,29.8,30.06,ESE,113,13.4,17.0,16,0.00,,,0.00,WUHU216HW,2013-05-03 00:20:00,
2013-05-02 17:21:00,81.4,29.8,30.06,SSE,158,14.3,15.9,16,0.00,,,0.00,WUHU216HW,2013-05-03 00:21:00,
2013-05-02 17:22:00,81.4,29.8,30.06,SE,135,13.4,15.9,16,0.00,,,0.00,WUHU216HW,2013-05-03 00:22:00,
2013-05-02 17:25:00,81.4,29.8,30.06,ESE,113,13.6,15.9,16,0.00,,,0.00,WUHU216HW,2013-05-03 00:25:00,
2013-05-02 17:26:00,81.4,29.8,30.06,ESE,113,9.8,15.9,16,0.00,,,0.00,WUHU216HW,2013-05-03 00:26:00,
2013-05-02 17:27:00,81.2,29.7,30.06,ESE,113,17.2,17.2,16,0.00,,,0.00,WUHU216HW,2013-05-03 00:27:00,
2013-05-02 17:30:00,81.0,29.5,30.06,ESE,113,13.6,17.2,16,0.00,,,0.00,WUHU216HW,2013-05-03 00:30:00,
2013-05-02 17:31:00,80.8,31.1,30.06,ESE,113,11.6,17.9,17,0.00,,,0.00,WUHU216HW,2013-05-03 00:31:00,
2013-05-02 17:32:00,80.8,29.3,30.06,ESE,113,15.0,17.9,16,0.00,,,0.00,WUHU216HW,2013-05-03 00:32:00,
2013-05-02 17:35:00,80.6,31.0,30.06,East,90,10.5,17.9,17,0.00,,,0.00,WUHU216HW,2013-05-03 00:35:00,
2013-05-02 17:36:00,80.6,31.0,30.06,SE,135,12.1,17.9,17,0.00,,,0.00,WUHU216HW,2013-05-03 00:36:00,
2013-05-02 17:37:00,80.5,30.8,30.06,SSE,158,12.5,17.9,17,0.00,,,0.00,WUHU216HW,2013-05-03 00:37:00,
2013-05-02 17:40:00,80.1,30.4,30.07,SE,135,8.1,17.9,17,0.00,,,0.00,WUHU216HW,2013-05-03 00:40:00,
2013-05-02 17:41:00,79.9,30.3,30.07,ESE,113,14.8,17.2,17,0.00,,,0.00,WUHU216HW,2013-05-03 00:41:00,
2013-05-02 17:42:00,79.7,30.2,30.07,East,90,11.4,16.3,17,0.00,,,0.00,WUHU216HW,2013-05-03 00:42:00,
2013-05-02 17:45:00,79.2,29.7,30.07,SE,135,13.4,16.3,17,0.00,,,0.00,WUHU216HW,2013-05-03 00:45:00,
2013-05-02 17:46:00,79.0,29.5,30.07,SE,135,14.3,16.3,17,0.00,,,0.00,WUHU216HW,2013-05-03 00:46:00,
2013-05-02 17:47:00,78.7,29.3,30.07,SE,135,13.0,16.3,17,0.00,,,0.00,WUHU216HW,2013-05-03 00:47:00,
2013-05-02 17:50:00,78.3,27.3,30.07,SE,135,16.8,17.4,16,0.00,,,0.00,WUHU216HW,2013-05-03 00:50:00,
2013-05-02 17:51:00,78.1,25.5,30.07,SE,135,9.4,17.4,15,0.00,,,0.00,WUHU216HW,2013-05-03 00:51:00,
2013-05-02 17:52:00,77.8,25.2,30.06,ESE,113,13.0,17.4,15,0.00,,,0.00,WUHU216HW,2013-05-03 00:52:00,
2013-05-02 17:53:00,77.8,25.2,30.06,ESE,113,13.0,17.4,15,0.00,,,0.00,WUHU216HW,2013-05-03 00:53:00,
2013-05-02 17:55:00,77.6,25.0,30.06,SE,135,15.7,17.4,15,0.00,,,0.00,WUHU216HW,2013-05-03 00:55:00,
2013-05-02 17:56:00,77.4,24.9,30.06,ESE,113,11.4,17.4,15,0.00,,,0.00,WUHU216HW,2013-05-03 00:56:00,
2013-05-02 17:57:00,77.4,24.9,30.07,ENE,68,10.7,17.4,15,0.00,,,0.00,WUHU216HW,2013-05-03 00:57:00,
2013-05-02 17:58:00,77.4,24.9,30.07,ESE,113,17.0,17.0,15,0.00,,,0.00,WUHU216HW,2013-05-03 00:58:00,
2013-05-02 18:00:00,77.0,24.7,30.06,ENE,68,14.3,17.0,15,0.00,,,0.00,WUHU216HW,2013-05-03 01:00:00,
2013-05-02 18:01:00,77.0,24.7,30.06,ESE,113,14.3,17.0,15,0.00,,,0.00,WUHU216HW,2013-05-03 01:01:00,
2013-05-02 18:02:00,76.9,24.5,30.06,SE,135,10.7,17.0,15,0.00,,,0.00,WUHU216HW,2013-05-03 01:02:00,
2013-05-02 18:03:00,76.9,24.5,30.07,SE,135,10.5,17.0,15,0.00,,,0.00,WUHU216HW,2013-05-03 01:03:00,
2013-05-02 18:06:00,76.5,24.2,30.06,SSE,158,13.9,17.0,15,0.00,,,0.00,WUHU216HW,2013-05-03 01:06:00,
2013-05-02 18:08:00,76.3,24.1,30.06,East,90,12.8,17.0,15,0.00,,,0.00,WUHU216HW,2013-05-03 01:08:00,
2013-05-02 18:11:00,76.0,23.8,30.07,ESE,113,15.4,18.8,15,0.00,,,0.00,WUHU216HW,2013-05-03 01:11:00,
2013-05-02 18:12:00,75.8,23.7,30.07,East,90,11.4,18.8,15,0.00,,,0.00,WUHU216HW,2013-05-03 01:12:00,
2013-05-02 18:13:00,75.8,23.7,30.06,SE,135,12.1,18.8,15,0.00,,,0.00,WUHU216HW,2013-05-03 01:13:00,
2013-05-02 18:16:00,75.4,23.4,30.06,ESE,113,8.5,18.8,15,0.00,,,0.00,WUHU216HW,2013-05-03 01:16:00,
2013-05-02 18:17:00,75.2,23.2,30.07,ESE,113,11.2,18.8,15,0.00,,,0.00,WUHU216HW,2013-05-03 01:17:00,
2013-05-02 18:18:00,75.2,23.2,30.07,ESE,113,5.4,18.8,15,0.00,,,0.00,WUHU216HW,2013-05-03 01:18:00,
2013-05-02 18:19:00,75.2,23.2,30.07,ESE,113,9.2,18.8,15,0.00,,,0.00,WUHU216HW,2013-05-03 01:19:00,
2013-05-02 18:21:00,75.1,23.1,30.07,ESE,113,9.6,17.2,15,0.00,,,0.00,WUHU216HW,2013-05-03 01:21:00,
2013-05-02 18:22:00,74.9,23.0,30.07,ESE,113,11.4,17.2,15,0.00,,,0.00,WUHU216HW,2013-05-03 01:22:00,
2013-05-02 18:23:00,74.9,23.0,30.07,ESE,113,9.2,14.5,15,0.00,,,0.00,WUHU216HW,2013-05-03 01:23:00,
2013-05-02 18:24:00,74.9,24.6,30.07,SE,135,11.4,14.5,16,0.00,,,0.00,WUHU216HW,2013-05-03 01:24:00,
2013-05-02 18:26:00,74.5,24.3,30.07,SE,135,15.7,15.7,16,0.00,,,0.00,WUHU216HW,2013-05-03 01:26:00,
2013-05-02 18:27:00,74.5,24.3,30.07,SE,135,14.3,15.7,16,0.00,,,0.00,WUHU216HW,2013-05-03 01:27:00,
2013-05-02 18:28:00,74.5,24.3,30.07,ESE,113,11.6,15.7,16,0.00,,,0.00,WUHU216HW,2013-05-03 01:28:00,
2013-05-02 18:29:00,74.3,24.2,30.07,ESE,113,9.8,15.7,16,0.00,,,0.00,WUHU216HW,2013-05-03 01:29:00,
2013-05-02 18:31:00,74.2,24.0,30.07,ESE,113,8.5,15.7,16,0.00,,,0.00,WUHU216HW,2013-05-03 01:31:00,
2013-05-02 18:32:00,74.2,24.0,30.07,SE,135,14.3,15.7,16,0.00,,,0.00,WUHU216HW,2013-05-03 01:32:00,
2013-05-02 18:33:00,74.0,24.0,30.07,ESE,113,10.5,15.7,16,0.00,,,0.00,WUHU216HW,2013-05-03 01:33:00,
2013-05-02 18:34:00,73.8,23.8,30.07,SE,135,14.3,15.7,16,0.00,,,0.00,WUHU216HW,2013-05-03 01:34:00,
2013-05-02 18:36:00,73.4,23.5,30.07,ESE,113,12.3,16.3,16,0.00,,,0.00,WUHU216HW,2013-05-03 01:36:00,
2013-05-02 18:37:00,73.6,23.7,30.07,ESE,113,11.4,16.3,16,0.00,,,0.00,WUHU216HW,2013-05-03 01:37:00,
2013-05-02 18:38:00,73.4,23.5,30.07,ESE,113,13.6,16.3,16,0.00,,,0.00,WUHU216HW,2013-05-03 01:38:00,
2013-05-02 18:39:00,73.3,23.3,30.07,ESE,113,8.5,16.3,16,0.00,,,0.00,WUHU216HW,2013-05-03 01:39:00,
2013-05-02 18:42:00,73.1,23.2,30.07,SE,135,10.3,16.3,16,0.00,,,0.00,WUHU216HW,2013-05-03 01:42:00,
2013-05-02 18:43:00,72.9,23.0,30.07,SE,135,10.5,16.3,16,0.00,,,0.00,WUHU216HW,2013-05-03 01:43:00,
2013-05-02 18:44:00,72.9,23.0,30.07,SSE,158,9.2,16.3,16,0.00,,,0.00,WUHU216HW,2013-05-03 01:44:00,
2013-05-02 18:45:00,72.7,22.9,30.07,SE,135,5.6,16.3,16,0.00,,,0.00,WUHU216HW,2013-05-03 01:45:00,
2013-05-02 18:47:00,72.5,22.8,30.07,ESE,113,9.2,14.3,16,0.00,,,0.00,WUHU216HW,2013-05-03 01:47:00,
2013-05-02 18:48:00,72.5,22.8,30.07,ESE,113,8.5,14.3,16,0.00,,,0.00,WUHU216HW,2013-05-03 01:48:00,
2013-05-02 18:50:00,72.4,22.6,30.07,ESE,113,11.0,15.7,16,0.00,,,0.00,WUHU216HW,2013-05-03 01:50:00,
2013-05-02 18:51:00,72.2,22.4,30.07,ESE,113,11.4,15.7,16,0.00,,,0.00,WUHU216HW,2013-05-03 01:51:00,
2013-05-02 18:52:00,72.2,22.4,30.07,ENE,68,11.4,15.7,16,0.00,,,0.00,WUHU216HW,2013-05-03 01:52:00,
2013-05-02 18:53:00,72.0,22.2,30.07,ESE,113,11.9,15.7,16,0.00,,,0.00,WUHU216HW,2013-05-03 01:53:00,
2013-05-02 18:55:00,71.8,22.2,30.07,SE,135,13.4,15.9,16,0.00,,,0.00,WUHU216HW,2013-05-03 01:55:00,
2013-05-02 18:56:00,71.6,22.0,30.07,SE,135,13.4,15.9,16,0.00,,,0.00,WUHU216HW,2013-05-03 01:56:00,
2013-05-02 18:57:00,71.6,22.0,30.07,ESE,113,13.4,15.9,16,0.00,,,0.00,WUHU216HW,2013-05-03 01:57:00,
2013-05-02 18:58:00,71.6,23.6,30.07,SE,135,13.0,15.9,17,0.00,,,0.00,WUHU216HW,2013-05-03 01:58:00,
2013-05-02 19:00:00,71.5,23.4,30.07,ESE,113,7.8,15.9,17,0.00,,,0.00,WUHU216HW,2013-05-03 02:00:00,
2013-05-02 19:01:00,71.3,23.3,30.08,ESE,113,12.8,15.9,17,0.00,,,0.00,WUHU216HW,2013-05-03 02:01:00,
2013-05-02 19:02:00,71.3,23.3,30.08,ESE,113,6.7,15.9,17,0.00,,,0.00,WUHU216HW,2013-05-03 02:02:00,
2013-05-02 19:03:00,71.3,23.3,30.08,SE,135,12.1,15.9,17,0.00,,,0.00,WUHU216HW,2013-05-03 02:03:00,
2013-05-02 19:05:00,71.1,23.1,30.08,East,90,9.4,14.3,17,0.00,,,0.00,WUHU216HW,2013-05-03 02:05:00,
2013-05-02 19:06:00,70.9,23.1,30.08,SE,135,12.8,13.9,17,0.00,,,0.00,WUHU216HW,2013-05-03 02:06:00,
2013-05-02 19:07:00,70.9,23.1,30.08,SE,135,9.4,13.9,17,0.00,,,0.00,WUHU216HW,2013-05-03 02:07:00,
2013-05-02 19:08:00,70.9,23.1,30.08,SE,135,9.6,13.9,17,0.00,,,0.00,WUHU216HW,2013-05-03 02:08:00,
2013-05-02 19:10:00,70.7,22.9,30.08,SE,135,5.8,13.9,17,0.00,,,0.00,WUHU216HW,2013-05-03 02:10:00,
2013-05-02 19:12:00,70.6,22.7,30.08,ESE,113,11.4,13.9,17,0.00,,,0.00,WUHU216HW,2013-05-03 02:12:00,
2013-05-02 19:13:00,70.6,22.7,30.08,ESE,113,6.9,14.5,17,0.00,,,0.00,WUHU216HW,2013-05-03 02:13:00,
2013-05-02 19:15:00,70.4,22.6,30.08,SE,135,7.8,14.5,17,0.00,,,0.00,WUHU216HW,2013-05-03 02:15:00,
2013-05-02 19:17:00,70.2,22.4,30.08,SSE,158,5.8,14.5,17,0.00,,,0.00,WUHU216HW,2013-05-03 02:17:00,
2013-05-02 19:18:00,70.2,22.4,30.08,SE,135,10.5,14.5,17,0.00,,,0.00,WUHU216HW,2013-05-03 02:18:00,
2013-05-02 19:19:00,70.2,22.4,30.08,SE,135,8.1,14.5,17,0.00,,,0.00,WUHU216HW,2013-05-03 02:19:00,
2013-05-02 19:21:00,70.0,22.3,30.08,SSE,158,7.4,14.5,17,0.00,,,0.00,WUHU216HW,2013-05-03 02:21:00,
2013-05-02 19:22:00,69.8,22.1,30.09,SE,135,6.9,14.5,17,0.00,,,0.00,WUHU216HW,2013-05-03 02:22:00,
2013-05-02 19:23:00,69.8,22.1,30.09,SE,135,8.9,12.5,17,0.00,,,0.00,WUHU216HW,2013-05-03 02:23:00,
2013-05-02 19:24:00,69.8,22.1,30.09,ESE,113,7.2,12.5,17,0.00,,,0.00,WUHU216HW,2013-05-03 02:24:00,
2013-05-02 19:26:00,69.7,22.0,30.09,ESE,113,7.6,12.5,17,0.00,,,0.00,WUHU216HW,2013-05-03 02:26:00,
2013-05-02 19:27:00,69.5,21.9,30.09,SSE,158,5.6,12.5,17,0.00,,,0.00,WUHU216HW,2013-05-03 02:27:00,
2013-05-02 19:29:00,69.5,21.9,30.09,East,90,4.7,8.9,17,0.00,,,0.00,WUHU216HW,2013-05-03 02:29:00,
2013-05-02 19:30:00,69.5,21.9,30.09,East,90,6.3,8.9,17,0.00,,,0.00,WUHU216HW,2013-05-03 02:30:00,
2013-05-02 19:31:00,69.3,21.7,30.09,ESE,113,7.4,8.9,17,0.00,,,0.00,WUHU216HW,2013-05-03 02:31:00,
2013-05-02 19:32:00,69.3,21.7,30.10,SE,135,7.8,8.9,17,0.00,,,0.00,WUHU216HW,2013-05-03 02:32:00,
2013-05-02 19:34:00,69.1,21.6,30.10,SE,135,4.0,8.7,17,0.00,,,0.00,WUHU216HW,2013-05-03 02:34:00,
2013-05-02 19:35:00,69.1,23.2,30.10,SE,135,7.8,8.7,18,0.00,,,0.00,WUHU216HW,2013-05-03 02:35:00,
2013-05-02 19:37:00,68.9,23.0,30.10,SE,135,4.9,8.7,18,0.00,,,0.00,WUHU216HW,2013-05-03 02:37:00,
2013-05-02 19:39:00,68.8,23.0,30.10,SSE,158,6.3,8.3,18,0.00,,,0.00,WUHU216HW,2013-05-03 02:39:00,
2013-05-02 19:41:00,68.6,22.8,30.10,SE,135,4.7,8.3,18,0.00,,,0.00,WUHU216HW,2013-05-03 02:41:00,
2013-05-02 19:42:00,68.6,22.8,30.10,SSE,158,4.0,8.3,18,0.00,,,0.00,WUHU216HW,2013-05-03 02:42:00,
2013-05-02 19:43:00,68.6,22.8,30.10,ESE,113,4.0,8.3,18,0.00,,,0.00,WUHU216HW,2013-05-03 02:43:00,
2013-05-02 19:44:00,68.4,22.7,30.10,SE,135,3.1,8.3,18,0.00,,,0.00,WUHU216HW,2013-05-03 02:44:00,
2013-05-02 19:46:00,68.4,22.7,30.11,SSE,158,5.4,6.9,18,0.00,,,0.00,WUHU216HW,2013-05-03 02:46:00,
2013-05-02 19:47:00,68.2,22.5,30.11,SE,135,4.7,6.9,18,0.00,,,0.00,WUHU216HW,2013-05-03 02:47:00,
2013-05-02 19:48:00,68.2,22.5,30.11,SE,135,7.6,7.8,18,0.00,,,0.00,WUHU216HW,2013-05-03 02:48:00,
2013-05-02 19:49:00,68.0,22.3,30.11,SE,135,5.4,7.8,18,0.00,,,0.00,WUHU216HW,2013-05-03 02:49:00,
2013-05-02 19:51:00,68.0,22.3,30.11,SE,135,3.8,7.8,18,0.00,,,0.00,WUHU216HW,2013-05-03 02:51:00,
2013-05-02 19:52:00,68.0,22.3,30.11,SSE,158,4.0,7.8,18,0.00,,,0.00,WUHU216HW,2013-05-03 02:52:00,
2013-05-02 19:53:00,67.9,22.2,30.11,SSE,158,3.4,7.8,18,0.00,,,0.00,WUHU216HW,2013-05-03 02:53:00,
2013-05-02 19:54:00,67.9,22.2,30.11,South,180,2.7,7.8,18,0.00,,,0.00,WUHU216HW,2013-05-03 02:54:00,
2013-05-02 19:56:00,67.7,22.1,30.11,South,180,3.8,7.8,18,0.00,,,0.00,WUHU216HW,2013-05-03 02:56:00,
2013-05-02 19:57:00,67.7,22.1,30.11,South,180,4.3,7.8,18,0.00,,,0.00,WUHU216HW,2013-05-03 02:57:00,
2013-05-02 19:58:00,67.7,22.1,30.11,SSE,158,6.7,7.8,18,0.00,,,0.00,WUHU216HW,2013-05-03 02:58:00,
2013-05-02 19:59:00,67.7,22.1,30.11,South,180,5.4,7.8,18,0.00,,,0.00,WUHU216HW,2013-05-03 02:59:00,
2013-05-02 20:01:00,67.3,21.7,30.11,SSW,203,4.7,8.3,18,0.00,,,0.00,WUHU216HW,2013-05-03 03:01:00,
2013-05-02 20:03:00,67.3,21.7,30.11,South,180,4.9,8.3,18,0.00,,,0.00,WUHU216HW,2013-05-03 03:03:00,
2013-05-02 20:04:00,67.3,21.7,30.11,SSE,158,3.8,8.3,18,0.00,,,0.00,WUHU216HW,2013-05-03 03:04:00,
2013-05-02 20:05:00,67.1,21.6,30.11,SSE,158,5.4,8.9,18,0.00,,,0.00,WUHU216HW,2013-05-03 03:05:00,
2013-05-02 20:07:00,67.0,21.4,30.11,SSE,158,6.0,8.9,18,0.00,,,0.00,WUHU216HW,2013-05-03 03:07:00,
2013-05-02 20:08:00,67.0,23.1,30.11,South,180,8.1,8.9,19,0.00,,,0.00,WUHU216HW,2013-05-03 03:08:00,
2013-05-02 20:09:00,67.0,23.1,30.11,SSE,158,5.8,8.9,19,0.00,,,0.00,WUHU216HW,2013-05-03 03:09:00,
2013-05-02 20:10:00,66.8,21.2,30.11,South,180,9.2,9.2,18,0.00,,,0.00,WUHU216HW,2013-05-03 03:10:00,
2013-05-02 20:12:00,66.6,21.1,30.11,SSE,158,6.5,9.2,18,0.00,,,0.00,WUHU216HW,2013-05-03 03:12:00,
2013-05-02 20:13:00,66.6,21.1,30.11,ESE,113,5.8,9.2,18,0.00,,,0.00,WUHU216HW,2013-05-03 03:13:00,
2013-05-02 20:14:00,66.4,21.0,30.11,South,180,4.0,9.2,18,0.00,,,0.00,WUHU216HW,2013-05-03 03:14:00,
2013-05-02 20:15:00,66.4,21.0,30.11,SSE,158,7.6,9.2,18,0.00,,,0.00,WUHU216HW,2013-05-03 03:15:00,
2013-05-02 20:17:00,66.2,22.3,30.11,SE,135,7.6,9.2,19,0.00,,,0.00,WUHU216HW,2013-05-03 03:17:00,
2013-05-02 20:18:00,66.2,22.3,30.11,SSE,158,4.0,9.2,19,0.00,,,0.00,WUHU216HW,2013-05-03 03:18:00,
2013-05-02 20:19:00,66.1,22.2,30.11,SSE,158,4.7,9.2,19,0.00,,,0.00,WUHU216HW,2013-05-03 03:19:00,
2013-05-02 20:20:00,66.1,22.2,30.11,SE,135,5.4,9.2,19,0.00,,,0.00,WUHU216HW,2013-05-03 03:20:00,
2013-05-02 20:22:00,66.1,22.2,30.11,SSE,158,5.6,7.8,19,0.00,,,0.00,WUHU216HW,2013-05-03 03:22:00,
2013-05-02 20:23:00,65.9,22.1,30.11,SSE,158,4.3,7.8,19,0.00,,,0.00,WUHU216HW,2013-05-03 03:23:00,
2013-05-02 20:24:00,65.9,22.1,30.11,SE,135,2.7,7.8,19,0.00,,,0.00,WUHU216HW,2013-05-03 03:24:00,
2013-05-02 20:25:00,65.9,22.1,30.11,South,180,4.9,7.8,19,0.00,,,0.00,WUHU216HW,2013-05-03 03:25:00,
2013-05-02 20:26:00,65.9,22.1,30.11,South,180,7.8,7.8,19,0.00,,,0.00,WUHU216HW,2013-05-03 03:26:00,
2013-05-02 20:27:00,65.7,22.0,30.11,SSE,158,5.4,7.8,19,0.00,,,0.00,WUHU216HW,2013-05-03 03:27:00,
2013-05-02 20:28:00,65.7,22.0,30.11,SE,135,8.1,10.7,19,0.00,,,0.00,WUHU216HW,2013-05-03 03:28:00,
2013-05-02 20:29:00,65.5,21.8,30.11,SSE,158,7.6,10.7,19,0.00,,,0.00,WUHU216HW,2013-05-03 03:29:00,
2013-05-02 20:30:00,65.5,21.8,30.11,SSE,158,5.4,10.7,19,0.00,,,0.00,WUHU216HW,2013-05-03 03:30:00,
2013-05-02 20:31:00,65.7,22.0,30.11,SSE,158,5.4,10.7,19,0.00,,,0.00,WUHU216HW,2013-05-03 03:31:00,
2013-05-02 20:33:00,65.5,21.8,30.11,SSE,158,8.3,10.7,19,0.00,,,0.00,WUHU216HW,2013-05-03 03:33:00,
2013-05-02 20:34:00,65.5,21.8,30.11,SSE,158,6.9,10.7,19,0.00,,,0.00,WUHU216HW,2013-05-03 03:34:00,
2013-05-02 20:35:00,65.5,21.8,30.11,SE,135,7.4,10.7,19,0.00,,,0.00,WUHU216HW,2013-05-03 03:35:00,
2013-05-02 20:36:00,65.3,21.6,30.10,SSE,158,5.8,10.7,19,0.00,,,0.00,WUHU216HW,2013-05-03 03:36:00,
2013-05-02 20:38:00,65.3,21.6,30.10,SSW,203,5.4,9.4,19,0.00,,,0.00,WUHU216HW,2013-05-03 03:38:00,
2013-05-02 20:39:00,65.2,21.5,30.11,South,180,5.8,9.4,19,0.00,,,0.00,WUHU216HW,2013-05-03 03:39:00,
2013-05-02 20:40:00,65.2,21.5,30.11,SSE,158,6.3,9.4,19,0.00,,,0.00,WUHU216HW,2013-05-03 03:40:00,
2013-05-02 20:41:00,65.2,21.5,30.10,SSE,158,7.6,9.4,19,0.00,,,0.00,WUHU216HW,2013-05-03 03:41:00,
2013-05-02 20:43:00,65.0,21.3,30.10,South,180,6.0,9.4,19,0.00,,,0.00,WUHU216HW,2013-05-03 03:43:00,
2013-05-02 20:44:00,64.8,21.3,30.10,South,180,6.7,9.4,19,0.00,,,0.00,WUHU216HW,2013-05-03 03:44:00,
2013-05-02 20:45:00,64.8,21.3,30.10,SSE,158,5.1,9.4,19,0.00,,,0.00,WUHU216HW,2013-05-03 03:45:00,
2013-05-02 20:46:00,64.8,21.3,30.10,SSE,158,6.9,8.9,19,0.00,,,0.00,WUHU216HW,2013-05-03 03:46:00,
2013-05-02 20:47:00,64.6,21.1,30.10,SSE,158,4.9,8.9,19,0.00,,,0.00,WUHU216HW,2013-05-03 03:47:00,
2013-05-02 20:49:00,64.6,22.7,30.10,SE,135,3.4,8.3,20,0.00,,,0.00,WUHU216HW,2013-05-03 03:49:00,
2013-05-02 20:50:00,64.4,22.5,30.10,SSE,158,4.9,8.3,20,0.00,,,0.00,WUHU216HW,2013-05-03 03:50:00,
2013-05-02 20:51:00,64.4,23.5,30.10,SSE,158,5.6,8.3,21,0.00,,,0.00,WUHU216HW,2013-05-03 03:51:00,
2013-05-02 20:52:00,64.4,23.5,30.10,South,180,6.5,8.3,21,0.00,,,0.00,WUHU216HW,2013-05-03 03:52:00,
2013-05-02 20:54:00,64.4,23.5,30.10,South,180,5.4,8.3,21,0.00,,,0.00,WUHU216HW,2013-05-03 03:54:00,
2013-05-02 20:55:00,64.4,23.5,30.10,SSE,158,5.1,8.3,21,0.00,,,0.00,WUHU216HW,2013-05-03 03:55:00,
2013-05-02 20:56:00,64.4,23.5,30.10,South,180,6.9,8.5,21,0.00,,,0.00,WUHU216HW,2013-05-03 03:56:00,
2013-05-02 20:57:00,64.4,23.5,30.10,South,180,5.4,8.5,21,0.00,,,0.00,WUHU216HW,2013-05-03 03:57:00,
2013-05-02 20:59:00,64.3,23.3,30.10,SSE,158,9.6,9.6,21,0.00,,,0.00,WUHU216HW,2013-05-03 03:59:00,
2013-05-02 21:00:00,64.1,23.2,30.10,SSE,158,7.6,9.6,21,0.00,,,0.00,WUHU216HW,2013-05-03 04:00:00,
2013-05-02 21:01:00,64.1,23.2,30.10,South,180,6.3,9.6,21,0.00,,,0.00,WUHU216HW,2013-05-03 04:01:00,
2013-05-02 21:06:00,63.7,23.0,30.11,South,180,6.9,9.8,21,0.00,,,0.00,WUHU216HW,2013-05-03 04:06:00,
2013-05-02 21:11:00,63.7,23.0,30.11,South,180,8.9,9.8,21,0.00,,,0.00,WUHU216HW,2013-05-03 04:11:00,
2013-05-02 21:12:00,63.7,23.0,30.11,South,180,8.9,9.8,21,0.00,,,0.00,WUHU216HW,2013-05-03 04:12:00,
2013-05-02 21:16:00,63.5,22.8,30.11,South,180,9.6,10.5,21,0.00,,,0.00,WUHU216HW,2013-05-03 04:16:00,
2013-05-02 21:17:00,63.5,22.8,30.11,SSW,203,13.6,13.6,21,0.00,,,0.00,WUHU216HW,2013-05-03 04:17:00,
2013-05-02 21:21:00,63.0,22.3,30.11,South,180,6.9,13.6,21,0.00,,,0.00,WUHU216HW,2013-05-03 04:21:00,
2013-05-02 21:22:00,63.0,22.3,30.11,South,180,6.9,13.6,21,0.00,,,0.00,WUHU216HW,2013-05-03 04:22:00,
2013-05-02 21:26:00,62.8,22.1,30.12,SSE,158,6.7,13.6,21,0.00,,,0.00,WUHU216HW,2013-05-03 04:26:00,
2013-05-02 21:27:00,62.8,22.1,30.12,South,180,9.2,13.6,21,0.00,,,0.00,WUHU216HW,2013-05-03 04:27:00,
2013-05-02 21:32:00,62.6,22.1,30.12,SSE,158,3.6,11.2,21,0.00,,,0.00,WUHU216HW,2013-05-03 04:32:00,
2013-05-02 21:37:00,62.6,22.1,30.12,South,180,9.2,10.1,21,0.00,,,0.00,WUHU216HW,2013-05-03 04:37:00,
2013-05-02 21:38:00,62.5,22.9,30.12,SSE,158,8.5,10.1,22,0.00,,,0.00,WUHU216HW,2013-05-03 04:38:00,
2013-05-02 21:42:00,62.3,22.7,30.12,South,180,7.6,11.9,22,0.00,,,0.00,WUHU216HW,2013-05-03 04:42:00,
2013-05-02 21:43:00,62.3,22.7,30.12,SSE,158,7.8,11.9,22,0.00,,,0.00,WUHU216HW,2013-05-03 04:43:00,
2013-05-02 21:47:00,62.1,22.6,30.12,South,180,7.2,11.9,22,0.00,,,0.00,WUHU216HW,2013-05-03 04:47:00,
2013-05-02 21:48:00,62.1,22.6,30.12,South,180,9.2,11.9,22,0.00,,,0.00,WUHU216HW,2013-05-03 04:48:00,
2013-05-02 21:52:00,61.9,21.4,30.12,South,180,13.2,13.2,21,0.00,,,0.00,WUHU216HW,2013-05-03 04:52:00,
2013-05-02 21:53:00,61.9,21.4,30.12,SSE,158,11.0,13.2,21,0.00,,,0.00,WUHU216HW,2013-05-03 04:53:00,
2013-05-02 21:57:00,61.6,21.2,30.13,South,180,14.3,14.3,21,0.00,,,0.00,WUHU216HW,2013-05-03 04:57:00,
2013-05-02 21:58:00,61.6,21.2,30.13,South,180,12.8,14.3,21,0.00,,,0.00,WUHU216HW,2013-05-03 04:58:00,
2013-05-02 22:02:00,61.4,21.0,30.12,South,180,11.6,14.3,21,0.00,,,0.00,WUHU216HW,2013-05-03 05:02:00,
2013-05-02 22:03:00,61.4,21.0,30.12,South,180,11.0,14.3,21,0.00,,,0.00,WUHU216HW,2013-05-03 05:03:00,
2013-05-02 22:08:00,61.2,20.9,30.12,SSE,158,8.9,15.0,21,0.00,,,0.00,WUHU216HW,2013-05-03 05:08:00,
2013-05-02 22:09:00,61.0,20.7,30.12,South,180,6.5,15.0,21,0.00,,,0.00,WUHU216HW,2013-05-03 05:09:00,
2013-05-02 22:13:00,60.8,20.6,30.13,SSE,158,12.1,17.2,21,0.00,,,0.00,WUHU216HW,2013-05-03 05:13:00,
2013-05-02 22:14:00,60.8,20.6,30.13,South,180,10.1,17.2,21,0.00,,,0.00,WUHU216HW,2013-05-03 05:14:00,
2013-05-02 22:18:00,60.7,20.4,30.13,SSE,158,11.4,17.2,21,0.00,,,0.00,WUHU216HW,2013-05-03 05:18:00,
2013-05-02 22:19:00,60.7,20.4,30.13,SE,135,9.8,17.2,21,0.00,,,0.00,WUHU216HW,2013-05-03 05:19:00,
2013-05-02 22:23:00,60.3,21.1,30.13,South,180,8.9,13.9,22,0.00,,,0.00,WUHU216HW,2013-05-03 05:23:00,
2013-05-02 22:24:00,60.3,20.1,30.13,SSW,203,10.1,13.9,21,0.00,,,0.00,WUHU216HW,2013-05-03 05:24:00,
2013-05-02 22:29:00,60.1,20.9,30.12,SSE,158,6.9,12.8,22,0.00,,,0.00,WUHU216HW,2013-05-03 05:29:00,
2013-05-02 22:34:00,60.1,20.9,30.12,South,180,9.2,11.4,22,0.00,,,0.00,WUHU216HW,2013-05-03 05:34:00,
2013-05-02 22:35:00,60.1,20.9,30.12,SSE,158,8.3,11.4,22,0.00,,,0.00,WUHU216HW,2013-05-03 05:35:00,
2013-05-02 22:39:00,59.9,20.7,30.12,SE,135,6.5,11.9,22,0.00,,,0.00,WUHU216HW,2013-05-03 05:39:00,
2013-05-02 22:40:00,59.9,20.7,30.12,SSE,158,6.9,11.9,22,0.00,,,0.00,WUHU216HW,2013-05-03 05:40:00,
2013-05-02 22:44:00,59.9,20.7,30.12,SE,135,6.3,11.9,22,0.00,,,0.00,WUHU216HW,2013-05-03 05:44:00,
2013-05-02 22:45:00,59.9,20.7,30.13,SE,135,6.3,11.9,22,0.00,,,0.00,WUHU216HW,2013-05-03 05:45:00,
2013-05-02 22:49:00,59.9,20.7,30.13,SSE,158,10.1,11.6,22,0.00,,,0.00,WUHU216HW,2013-05-03 05:49:00,
2013-05-02 22:50:00,59.9,20.7,30.13,SE,135,8.1,11.6,22,0.00,,,0.00,WUHU216HW,2013-05-03 05:50:00,
2013-05-02 22:54:00,59.8,20.6,30.13,SE,135,5.4,11.4,22,0.00,,,0.00,WUHU216HW,2013-05-03 05:54:00,
2013-05-02 22:55:00,59.8,20.6,30.12,South,180,3.6,11.4,22,0.00,,,0.00,WUHU216HW,2013-05-03 05:55:00,
2013-05-02 22:56:00,59.6,20.4,30.12,SE,135,3.8,11.4,22,0.00,,,0.00,WUHU216HW,2013-05-03 05:56:00,
2013-05-02 22:59:00,59.6,20.4,30.13,SSE,158,4.9,11.4,22,0.00,,,0.00,WUHU216HW,2013-05-03 05:59:00,
2013-05-02 23:00:00,59.6,20.4,30.13,South,180,5.4,10.5,22,0.00,,,0.00,WUHU216HW,2013-05-03 06:00:00,
2013-05-02 23:01:00,59.6,20.4,30.12,SE,135,3.6,10.5,22,0.00,,,0.00,WUHU216HW,2013-05-03 06:01:00,
2013-05-02 23:04:00,59.6,20.4,30.13,SE,135,3.8,10.5,22,0.00,,,0.00,WUHU216HW,2013-05-03 06:04:00,
2013-05-02 23:05:00,59.4,20.3,30.13,SSE,158,7.8,10.5,22,0.00,,,0.00,WUHU216HW,2013-05-03 06:05:00,
2013-05-02 23:06:00,59.4,20.3,30.13,SE,135,4.7,10.5,22,0.00,,,0.00,WUHU216HW,2013-05-03 06:06:00,
2013-05-02 23:10:00,59.2,20.1,30.13,SSE,158,5.4,11.6,22,0.00,,,0.00,WUHU216HW,2013-05-03 06:10:00,
2013-05-02 23:11:00,59.2,20.1,30.13,SE,135,9.2,11.6,22,0.00,,,0.00,WUHU216HW,2013-05-03 06:11:00,
2013-05-02 23:15:00,59.0,20.0,30.13,SSE,158,10.7,11.6,22,0.00,,,0.00,WUHU216HW,2013-05-03 06:15:00,
2013-05-02 23:16:00,59.0,20.0,30.13,South,180,9.8,11.6,22,0.00,,,0.00,WUHU216HW,2013-05-03 06:16:00,
2013-05-02 23:20:00,58.9,19.8,30.13,SSE,158,10.5,11.6,22,0.00,,,0.00,WUHU216HW,2013-05-03 06:20:00,
2013-05-02 23:21:00,58.9,19.8,30.13,SSE,158,10.5,11.6,22,0.00,,,0.00,WUHU216HW,2013-05-03 06:21:00,
2013-05-02 23:26:00,58.9,20.8,30.13,SSE,158,7.6,11.6,23,0.00,,,0.00,WUHU216HW,2013-05-03 06:26:00,
2013-05-02 23:27:00,58.7,20.6,30.12,SSE,158,4.7,11.6,23,0.00,,,0.00,WUHU216HW,2013-05-03 06:27:00,
2013-05-02 23:31:00,58.7,20.6,30.12,South,180,11.2,11.2,23,0.00,,,0.00,WUHU216HW,2013-05-03 06:31:00,
2013-05-02 23:32:00,58.7,20.6,30.12,South,180,9.6,11.2,23,0.00,,,0.00,WUHU216HW,2013-05-03 06:32:00,
2013-05-02 23:36:00,58.5,20.4,30.12,South,180,6.9,11.2,23,0.00,,,0.00,WUHU216HW,2013-05-03 06:36:00,
2013-05-02 23:37:00,58.5,20.4,30.12,SSE,158,6.7,11.2,23,0.00,,,0.00,WUHU216HW,2013-05-03 06:37:00,
2013-05-02 23:41:00,58.5,20.4,30.12,SSE,158,11.6,12.1,23,0.00,,,0.00,WUHU216HW,2013-05-03 06:41:00,
2013-05-02 23:42:00,58.3,20.4,30.12,SSE,158,8.5,12.1,23,0.00,,,0.00,WUHU216HW,2013-05-03 06:42:00,
2013-05-02 23:46:00,58.3,20.4,30.12,ESE,113,12.3,13.2,23,0.00,,,0.00,WUHU216HW,2013-05-03 06:46:00,
2013-05-02 23:47:00,58.3,20.4,30.12,SSW,203,7.4,13.2,23,0.00,,,0.00,WUHU216HW,2013-05-03 06:47:00,
2013-05-02 23:48:00,58.1,20.2,30.12,SSW,203,7.6,13.2,23,0.00,,,0.00,WUHU216HW,2013-05-03 06:48:00,
2013-05-02 23:51:00,58.1,20.2,30.12,SE,135,7.8,16.6,23,0.00,,,0.00,WUHU216HW,2013-05-03 06:51:00,
2013-05-02 23:52:00,58.1,20.2,30.12,SSE,158,7.6,16.6,23,0.00,,,0.00,WUHU216HW,2013-05-03 06:52:00,
2013-05-02 23:53:00,58.1,20.2,30.12,SSE,158,6.9,16.6,23,0.00,,,0.00,WUHU216HW,2013-05-03 06:53:00,
2013-05-02 23:56:00,58.0,20.0,30.12,SE,135,9.2,16.6,23,0.00,,,0.00,WUHU216HW,2013-05-03 06:56:00,
2013-05-02 23:57:00,58.0,20.0,30.12,South,180,7.4,16.6,23,0.00,,,0.00,WUHU216HW,2013-05-03 06:57:00,
2013-05-02 23:58:00,58.0,20.0,30.12,SSE,158,10.7,16.6,23,0.00,,,0.00,WUHU216HW,2013-05-03 06:58:00,